Wetterdaten: Freitag, 05.08.2016
Datum Zeit Temp. A. Feuchte A. Luftdruck Regen Wind Richtung Richtung Sonnenschein ET UV Solar Taupunkt Windchill Windben Empfang
05.08.2016 00:00 21,3 C 82 % 1005,4 hPa 0,0 l/m 5,0 km/h (1 Bft) O-NO 67 0 min 0,000 mm 0,0 UV-I 0 W/m 18,1 C 21,3 C 8,0 km/h (2 Bft) 100,00 %
05.08.2016 00:02 21,3 C 82 % 1005,4 hPa 0,0 l/m 5,0 km/h (1 Bft) O-NO 73 0 min 0,000 mm 0,0 UV-I 0 W/m 18,1 C 21,3 C 6,4 km/h (2 Bft) 97,37 %
05.08.2016 00:04 21,3 C 82 % 1005,2 hPa 0,0 l/m 4,3 km/h (1 Bft) O-NO 65 0 min 0,000 mm 0,0 UV-I 0 W/m 18,1 C 21,3 C 6,4 km/h (2 Bft) 100,00 %
05.08.2016 00:06 21,3 C 83 % 1005,3 hPa 0,0 l/m 4,6 km/h (1 Bft) O-NO 68 0 min 0,000 mm 0,0 UV-I 0 W/m 18,3 C 21,3 C 6,4 km/h (2 Bft) 100,00 %
05.08.2016 00:08 21,2 C 83 % 1005,2 hPa 0,0 l/m 6,8 km/h (2 Bft) O-NO 63 0 min 0,000 mm 0,0 UV-I 0 W/m 18,2 C 21,1 C 8,0 km/h (2 Bft) 100,00 %
05.08.2016 00:10 21,2 C 83 % 1005,1 hPa 0,0 l/m 7,4 km/h (2 Bft) O 80 0 min 0,000 mm 0,0 UV-I 0 W/m 18,2 C 20,8 C 9,7 km/h (2 Bft) 100,00 %
05.08.2016 00:12 21,1 C 83 % 1005,2 hPa 0,0 l/m 7,5 km/h (2 Bft) O-NO 66 0 min 0,000 mm 0,0 UV-I 0 W/m 18,1 C 20,7 C 11,3 km/h (2 Bft) 96,23 %
05.08.2016 00:14 21,1 C 84 % 1005,1 hPa 0,0 l/m 7,1 km/h (2 Bft) O-NO 68 0 min 0,000 mm 0,0 UV-I 0 W/m 18,3 C 20,8 C 11,3 km/h (2 Bft) 100,00 %
05.08.2016 00:16 21,1 C 84 % 1005,1 hPa 0,0 l/m 7,6 km/h (2 Bft) O-NO 70 0 min 0,000 mm 0,0 UV-I 0 W/m 18,3 C 20,7 C 11,3 km/h (2 Bft) 100,00 %
05.08.2016 00:18 21,2 C 84 % 1005,1 hPa 0,0 l/m 8,8 km/h (2 Bft) O-NO 72 0 min 0,000 mm 0,0 UV-I 0 W/m 18,4 C 20,3 C 12,9 km/h (3 Bft) 97,37 %
05.08.2016 00:20 21,2 C 83 % 1005,0 hPa 0,0 l/m 6,5 km/h (2 Bft) O-NO 66 0 min 0,000 mm 0,0 UV-I 0 W/m 18,2 C 21,2 C 9,7 km/h (2 Bft) 98,31 %
05.08.2016 00:22 21,2 C 83 % 1004,9 hPa 0,0 l/m 6,3 km/h (2 Bft) O-NO 62 0 min 0,000 mm 0,0 UV-I 0 W/m 18,2 C 21,2 C 11,3 km/h (2 Bft) 97,87 %
05.08.2016 00:24 21,2 C 83 % 1004,9 hPa 0,0 l/m 6,6 km/h (2 Bft) O-NO 78 0 min 0,000 mm 0,0 UV-I 0 W/m 18,2 C 21,1 C 11,3 km/h (2 Bft) 95,12 %
05.08.2016 00:26 21,2 C 83 % 1004,9 hPa 0,0 l/m 5,9 km/h (2 Bft) O 80 0 min 0,000 mm 0,0 UV-I 0 W/m 18,2 C 21,2 C 12,9 km/h (3 Bft) 97,87 %
05.08.2016 00:28 21,2 C 84 % 1004,9 hPa 0,0 l/m 8,3 km/h (2 Bft) O 84 0 min 0,000 mm 0,0 UV-I 0 W/m 18,4 C 20,5 C 14,5 km/h (3 Bft) 93,62 %
05.08.2016 00:30 21,2 C 84 % 1004,9 hPa 0,0 l/m 9,8 km/h (2 Bft) O-NO 71 0 min 0,000 mm 0,0 UV-I 0 W/m 18,4 C 20,0 C 16,1 km/h (3 Bft) 98,11 %
05.08.2016 00:32 21,2 C 83 % 1004,9 hPa 0,0 l/m 11,1 km/h (2 Bft) O 86 0 min 0,000 mm 0,0 UV-I 0 W/m 18,2 C 19,7 C 14,5 km/h (3 Bft) 97,87 %
05.08.2016 00:34 21,3 C 83 % 1004,9 hPa 0,0 l/m 9,1 km/h (2 Bft) O-NO 77 0 min 0,000 mm 0,0 UV-I 0 W/m 18,3 C 20,4 C 12,9 km/h (3 Bft) 97,56 %
05.08.2016 00:36 21,3 C 83 % 1004,9 hPa 0,0 l/m 11,5 km/h (2 Bft) O 83 0 min 0,000 mm 0,0 UV-I 0 W/m 18,3 C 19,7 C 14,5 km/h (3 Bft) 98,11 %
05.08.2016 00:38 21,4 C 82 % 1004,8 hPa 0,0 l/m 12,3 km/h (3 Bft) O-NO 57 0 min 0,000 mm 0,0 UV-I 0 W/m 18,2 C 19,6 C 17,7 km/h (3 Bft) 97,87 %
05.08.2016 00:40 21,4 C 82 % 1004,8 hPa 0,0 l/m 7,8 km/h (2 Bft) O-NO 67 0 min 0,000 mm 0,0 UV-I 0 W/m 18,2 C 20,9 C 11,3 km/h (2 Bft) 97,92 %
05.08.2016 00:42 21,4 C 82 % 1004,8 hPa 0,0 l/m 8,8 km/h (2 Bft) O-NO 72 0 min 0,000 mm 0,0 UV-I 0 W/m 18,2 C 20,6 C 12,9 km/h (3 Bft) 95,74 %
05.08.2016 00:44 21,4 C 82 % 1004,7 hPa 0,0 l/m 6,9 km/h (2 Bft) O-NO 72 0 min 0,000 mm 0,0 UV-I 0 W/m 18,2 C 21,2 C 11,3 km/h (2 Bft) 97,37 %
05.08.2016 00:46 21,3 C 82 % 1004,7 hPa 0,0 l/m 11,1 km/h (2 Bft) O 87 0 min 0,000 mm 0,0 UV-I 0 W/m 18,1 C 19,8 C 17,7 km/h (3 Bft) 98,21 %
05.08.2016 00:48 21,3 C 82 % 1004,7 hPa 0,0 l/m 9,7 km/h (2 Bft) O-NO 71 0 min 0,000 mm 0,0 UV-I 0 W/m 18,1 C 20,2 C 14,5 km/h (3 Bft) 92,11 %
05.08.2016 00:50 21,3 C 82 % 1004,7 hPa 0,0 l/m 9,4 km/h (2 Bft) O-NO 65 0 min 0,000 mm 0,0 UV-I 0 W/m 18,1 C 20,3 C 12,9 km/h (3 Bft) 98,11 %
05.08.2016 00:52 21,3 C 82 % 1004,7 hPa 0,0 l/m 11,4 km/h (2 Bft) O 86 0 min 0,000 mm 0,0 UV-I 0 W/m 18,1 C 19,7 C 16,1 km/h (3 Bft) 97,87 %
05.08.2016 00:54 21,3 C 82 % 1004,6 hPa 0,0 l/m 9,5 km/h (2 Bft) O-NO 66 0 min 0,000 mm 0,0 UV-I 0 W/m 18,1 C 20,2 C 12,9 km/h (3 Bft) 100,00 %
05.08.2016 00:56 21,3 C 81 % 1004,6 hPa 0,0 l/m 10,1 km/h (2 Bft) O 82 0 min 0,000 mm 0,0 UV-I 0 W/m 17,9 C 20,0 C 14,5 km/h (3 Bft) 100,00 %
05.08.2016 00:58 21,3 C 81 % 1004,6 hPa 0,0 l/m 10,8 km/h (2 Bft) O-NO 74 0 min 0,000 mm 0,0 UV-I 0 W/m 17,9 C 19,8 C 14,5 km/h (3 Bft) 100,00 %
05.08.2016 01:00 21,3 C 81 % 1004,6 hPa 0,0 l/m 11,5 km/h (2 Bft) O-NO 69 0 min 0,000 mm 0,0 UV-I 0 W/m 17,9 C 19,7 C 14,5 km/h (3 Bft) 100,00 %
05.08.2016 01:02 21,2 C 81 % 1004,5 hPa 0,0 l/m 10,2 km/h (2 Bft) O-NO 69 0 min 0,025 mm 0,0 UV-I 0 W/m 17,8 C 19,9 C 14,5 km/h (3 Bft) 98,11 %
05.08.2016 01:04 21,2 C 81 % 1004,6 hPa 0,0 l/m 11,4 km/h (2 Bft) O-NO 77 0 min 0,000 mm 0,0 UV-I 0 W/m 17,8 C 19,6 C 16,1 km/h (3 Bft) 100,00 %
05.08.2016 01:06 21,2 C 81 % 1004,6 hPa 0,0 l/m 6,5 km/h (2 Bft) O-SO 102 0 min 0,000 mm 0,0 UV-I 0 W/m 17,8 C 21,2 C 11,3 km/h (2 Bft) 97,87 %
05.08.2016 01:08 21,2 C 81 % 1004,7 hPa 0,0 l/m 4,4 km/h (1 Bft) O-SO 120 0 min 0,000 mm 0,0 UV-I 0 W/m 17,8 C 21,2 C 9,7 km/h (2 Bft) 97,87 %
05.08.2016 01:10 21,1 C 81 % 1004,7 hPa 0,0 l/m 7,1 km/h (2 Bft) O 84 0 min 0,000 mm 0,0 UV-I 0 W/m 17,7 C 20,8 C 12,9 km/h (3 Bft) 100,00 %
05.08.2016 01:12 21,1 C 80 % 1004,7 hPa 0,0 l/m 9,2 km/h (2 Bft) O-SO 106 0 min 0,000 mm 0,0 UV-I 0 W/m 17,5 C 20,1 C 12,9 km/h (3 Bft) 100,00 %
05.08.2016 01:14 21,2 C 80 % 1004,7 hPa 0,0 l/m 5,8 km/h (2 Bft) O 92 0 min 0,000 mm 0,0 UV-I 0 W/m 17,6 C 21,2 C 11,3 km/h (2 Bft) 100,00 %
05.08.2016 01:16 21,2 C 80 % 1004,7 hPa 0,0 l/m 4,2 km/h (1 Bft) O 82 0 min 0,000 mm 0,0 UV-I 0 W/m 17,6 C 21,2 C 11,3 km/h (2 Bft) 98,00 %
05.08.2016 01:18 21,1 C 80 % 1004,7 hPa 0,0 l/m 5,2 km/h (1 Bft) O 96 0 min 0,000 mm 0,0 UV-I 0 W/m 17,5 C 21,1 C 9,7 km/h (2 Bft) 100,00 %
05.08.2016 01:20 21,0 C 81 % 1004,7 hPa 0,0 l/m 3,6 km/h (1 Bft) O 100 0 min 0,000 mm 0,0 UV-I 0 W/m 17,6 C 21,0 C 6,4 km/h (2 Bft) 100,00 %
05.08.2016 01:22 21,0 C 80 % 1004,7 hPa 0,0 l/m 2,9 km/h (1 Bft) O-NO 72 0 min 0,000 mm 0,0 UV-I 0 W/m 17,4 C 21,0 C 4,8 km/h (1 Bft) 100,00 %
05.08.2016 01:24 21,0 C 81 % 1004,7 hPa 0,0 l/m 1,6 km/h (1 Bft) O-NO 72 0 min 0,000 mm 0,0 UV-I 0 W/m 17,6 C 21,0 C 3,2 km/h (1 Bft) 98,21 %
05.08.2016 01:26 20,9 C 81 % 1004,7 hPa 0,0 l/m 4,6 km/h (1 Bft) O 83 0 min 0,000 mm 0,0 UV-I 0 W/m 17,5 C 20,9 C 8,0 km/h (2 Bft) 100,00 %
05.08.2016 01:28 20,9 C 80 % 1004,7 hPa 0,0 l/m 3,6 km/h (1 Bft) O-NO 66 0 min 0,000 mm 0,0 UV-I 0 W/m 17,3 C 20,9 C 6,4 km/h (2 Bft) 96,00 %
05.08.2016 01:30 20,8 C 81 % 1004,7 hPa 0,0 l/m 1,3 km/h (1 Bft) O-NO 66 0 min 0,000 mm 0,0 UV-I 0 W/m 17,4 C 20,8 C 3,2 km/h (1 Bft) 100,00 %
05.08.2016 01:32 20,6 C 82 % 1004,8 hPa 0,0 l/m 2,1 km/h (1 Bft) O-NO 66 0 min 0,000 mm 0,0 UV-I 0 W/m 17,4 C 20,6 C 3,2 km/h (1 Bft) 100,00 %
05.08.2016 01:34 20,3 C 82 % 1004,7 hPa 0,0 l/m 2,7 km/h (1 Bft) O-NO 66 0 min 0,000 mm 0,0 UV-I 0 W/m 17,1 C 20,3 C 4,8 km/h (1 Bft) 100,00 %
05.08.2016 01:36 20,2 C 83 % 1004,7 hPa 0,0 l/m 3,5 km/h (1 Bft) O-NO 66 0 min 0,000 mm 0,0 UV-I 0 W/m 17,2 C 20,2 C 4,8 km/h (1 Bft) 100,00 %
05.08.2016 01:38 20,0 C 84 % 1004,8 hPa 0,0 l/m 3,3 km/h (1 Bft) O-NO 66 0 min 0,000 mm 0,0 UV-I 0 W/m 17,2 C 20,0 C 4,8 km/h (1 Bft) 100,00 %
05.08.2016 01:40 19,9 C 85 % 1004,8 hPa 0,0 l/m 3,9 km/h (1 Bft) O-NO 63 0 min 0,000 mm 0,0 UV-I 0 W/m 17,3 C 19,9 C 6,4 km/h (2 Bft) 100,00 %
05.08.2016 01:42 19,8 C 85 % 1004,7 hPa 0,0 l/m 4,5 km/h (1 Bft) NO 55 0 min 0,000 mm 0,0 UV-I 0 W/m 17,2 C 19,8 C 6,4 km/h (2 Bft) 100,00 %
05.08.2016 01:44 19,7 C 85 % 1004,8 hPa 0,0 l/m 3,1 km/h (1 Bft) NO 55 0 min 0,000 mm 0,0 UV-I 0 W/m 17,1 C 19,7 C 4,8 km/h (1 Bft) 96,23 %
05.08.2016 01:46 19,7 C 85 % 1004,8 hPa 0,0 l/m 3,3 km/h (1 Bft) NO 55 0 min 0,000 mm 0,0 UV-I 0 W/m 17,1 C 19,7 C 4,8 km/h (1 Bft) 100,00 %
05.08.2016 01:48 19,6 C 86 % 1004,9 hPa 0,0 l/m 3,1 km/h (1 Bft) NO 55 0 min 0,000 mm 0,0 UV-I 0 W/m 17,2 C 19,6 C 4,8 km/h (1 Bft) 100,00 %
05.08.2016 01:50 19,7 C 86 % 1004,9 hPa 0,0 l/m 0,7 km/h (0 Bft) NO 55 0 min 0,000 mm 0,0 UV-I 0 W/m 17,3 C 19,7 C 3,2 km/h (1 Bft) 100,00 %
05.08.2016 01:52 19,6 C 86 % 1005,0 hPa 0,0 l/m 1,0 km/h (0 Bft) NO 55 0 min 0,000 mm 0,0 UV-I 0 W/m 17,2 C 19,6 C 3,2 km/h (1 Bft) 100,00 %
05.08.2016 01:54 19,5 C 87 % 1005,1 hPa 0,0 l/m 2,1 km/h (1 Bft) NO 55 0 min 0,000 mm 0,0 UV-I 0 W/m 17,3 C 19,5 C 3,2 km/h (1 Bft) 97,87 %
05.08.2016 01:56 19,4 C 87 % 1005,2 hPa 0,0 l/m 1,6 km/h (1 Bft) NO 55 0 min 0,000 mm 0,0 UV-I 0 W/m 17,2 C 19,4 C 3,2 km/h (1 Bft) 100,00 %
05.08.2016 01:58 19,3 C 87 % 1005,4 hPa 0,0 l/m 2,5 km/h (1 Bft) NO 55 0 min 0,000 mm 0,0 UV-I 0 W/m 17,1 C 19,3 C 4,8 km/h (1 Bft) 100,00 %
05.08.2016 02:00 19,3 C 88 % 1005,6 hPa 0,0 l/m 7,0 km/h (2 Bft) SW 232 0 min 0,026 mm 0,0 UV-I 0 W/m 17,3 C 19,0 C 11,3 km/h (2 Bft) 100,00 %
05.08.2016 02:02 19,3 C 88 % 1005,8 hPa 0,0 l/m 11,5 km/h (2 Bft) S-SO 153 0 min 0,000 mm 0,0 UV-I 0 W/m 17,3 C 17,4 C 16,1 km/h (3 Bft) 100,00 %
05.08.2016 02:04 19,3 C 88 % 1006,3 hPa 0,0 l/m 17,1 km/h (3 Bft) W-SW 253 0 min 0,000 mm 0,0 UV-I 0 W/m 17,3 C 15,9 C 27,4 km/h (4 Bft) 100,00 %
05.08.2016 02:06 19,3 C 89 % 1006,5 hPa 0,0 l/m 15,6 km/h (3 Bft) SW 227 0 min 0,000 mm 0,0 UV-I 0 W/m 17,4 C 16,3 C 24,1 km/h (4 Bft) 100,00 %
05.08.2016 02:08 19,4 C 89 % 1006,6 hPa 0,0 l/m 20,4 km/h (4 Bft) SW 232 0 min 0,000 mm 0,0 UV-I 0 W/m 17,5 C 15,4 C 30,6 km/h (5 Bft) 100,00 %
05.08.2016 02:10 19,6 C 89 % 1006,5 hPa 0,0 l/m 18,5 km/h (3 Bft) W 264 0 min 0,000 mm 0,0 UV-I 0 W/m 17,7 C 16,0 C 25,7 km/h (4 Bft) 100,00 %
05.08.2016 02:12 19,7 C 89 % 1006,5 hPa 0,0 l/m 13,9 km/h (3 Bft) W-SW 248 0 min 0,000 mm 0,0 UV-I 0 W/m 17,8 C 17,2 C 24,1 km/h (4 Bft) 100,00 %
05.08.2016 02:14 19,8 C 88 % 1006,6 hPa 0,0 l/m 14,4 km/h (3 Bft) W-SW 248 0 min 0,000 mm 0,0 UV-I 0 W/m 17,8 C 17,2 C 24,1 km/h (4 Bft) 100,00 %
05.08.2016 02:16 19,9 C 88 % 1006,6 hPa 0,0 l/m 16,7 km/h (3 Bft) W 259 0 min 0,000 mm 0,0 UV-I 0 W/m 17,8 C 16,7 C 20,9 km/h (4 Bft) 97,37 %
05.08.2016 02:18 19,9 C 88 % 1006,6 hPa 0,0 l/m 15,4 km/h (3 Bft) W 261 0 min 0,000 mm 0,0 UV-I 0 W/m 17,8 C 17,0 C 20,9 km/h (4 Bft) 98,11 %
05.08.2016 02:20 20,0 C 87 % 1006,7 hPa 0,0 l/m 16,8 km/h (3 Bft) SW 231 0 min 0,000 mm 0,0 UV-I 0 W/m 17,8 C 16,8 C 29,0 km/h (5 Bft) 97,87 %
05.08.2016 02:22 20,0 C 87 % 1006,7 hPa 0,0 l/m 16,8 km/h (3 Bft) W-SW 253 0 min 0,000 mm 0,0 UV-I 0 W/m 17,8 C 16,8 C 25,7 km/h (4 Bft) 97,37 %
05.08.2016 02:24 20,0 C 87 % 1006,9 hPa 0,0 l/m 17,7 km/h (3 Bft) S-SW 202 0 min 0,000 mm 0,0 UV-I 0 W/m 17,8 C 16,7 C 29,0 km/h (5 Bft) 98,21 %
05.08.2016 02:26 20,0 C 87 % 1006,9 hPa 0,0 l/m 16,6 km/h (3 Bft) W-SW 242 0 min 0,000 mm 0,0 UV-I 0 W/m 17,8 C 16,9 C 22,5 km/h (4 Bft) 97,37 %
05.08.2016 02:28 20,0 C 87 % 1007,0 hPa 0,0 l/m 16,9 km/h (3 Bft) W-SW 250 0 min 0,000 mm 0,0 UV-I 0 W/m 17,8 C 16,8 C 29,0 km/h (5 Bft) 96,43 %
05.08.2016 02:30 20,0 C 86 % 1007,1 hPa 0,0 l/m 16,4 km/h (3 Bft) W-SW 246 0 min 0,000 mm 0,0 UV-I 0 W/m 17,6 C 16,9 C 25,7 km/h (4 Bft) 97,73 %
05.08.2016 02:32 20,0 C 86 % 1007,1 hPa 0,0 l/m 18,5 km/h (3 Bft) SW 227 0 min 0,000 mm 0,0 UV-I 0 W/m 17,6 C 16,5 C 30,6 km/h (5 Bft) 98,00 %
05.08.2016 02:34 20,1 C 85 % 1007,2 hPa 0,0 l/m 20,4 km/h (4 Bft) W 267 0 min 0,000 mm 0,0 UV-I 0 W/m 17,5 C 16,3 C 29,0 km/h (5 Bft) 97,87 %
05.08.2016 02:36 20,1 C 84 % 1007,2 hPa 0,0 l/m 17,6 km/h (3 Bft) SW 236 0 min 0,000 mm 0,0 UV-I 0 W/m 17,3 C 16,8 C 22,5 km/h (4 Bft) 97,62 %
05.08.2016 02:38 20,2 C 84 % 1007,2 hPa 0,0 l/m 17,2 km/h (3 Bft) SW 226 0 min 0,000 mm 0,0 UV-I 0 W/m 17,4 C 17,0 C 25,7 km/h (4 Bft) 96,23 %
05.08.2016 02:40 20,2 C 83 % 1007,4 hPa 0,0 l/m 15,8 km/h (3 Bft) SW 221 0 min 0,000 mm 0,0 UV-I 0 W/m 17,2 C 17,3 C 22,5 km/h (4 Bft) 97,73 %
05.08.2016 02:42 20,3 C 83 % 1007,4 hPa 0,0 l/m 16,7 km/h (3 Bft) W-SW 246 0 min 0,000 mm 0,0 UV-I 0 W/m 17,3 C 17,2 C 22,5 km/h (4 Bft) 96,00 %
05.08.2016 02:44 20,3 C 81 % 1007,5 hPa 0,0 l/m 19,7 km/h (3 Bft) SW 218 0 min 0,000 mm 0,0 UV-I 0 W/m 16,9 C 16,6 C 25,7 km/h (4 Bft) 94,00 %
05.08.2016 02:46 20,4 C 81 % 1007,5 hPa 0,0 l/m 21,8 km/h (4 Bft) SW 231 0 min 0,000 mm 0,0 UV-I 0 W/m 17,0 C 16,4 C 32,2 km/h (5 Bft) 97,56 %
05.08.2016 02:48 20,4 C 80 % 1007,7 hPa 0,0 l/m 22,6 km/h (4 Bft) SW 234 0 min 0,000 mm 0,0 UV-I 0 W/m 16,8 C 16,3 C 48,3 km/h (6 Bft) 97,87 %
05.08.2016 02:50 20,6 C 79 % 1007,6 hPa 0,0 l/m 26,3 km/h (4 Bft) SW 227 0 min 0,000 mm 0,0 UV-I 0 W/m 16,8 C 16,0 C 45,1 km/h (6 Bft) 100,00 %
05.08.2016 02:52 20,7 C 79 % 1007,7 hPa 0,0 l/m 24,1 km/h (4 Bft) SW 233 0 min 0,000 mm 0,0 UV-I 0 W/m 16,9 C 16,5 C 38,6 km/h (5 Bft) 100,00 %
05.08.2016 02:54 20,7 C 78 % 1007,8 hPa 0,0 l/m 30,0 km/h (5 Bft) W-SW 257 0 min 0,000 mm 0,0 UV-I 0 W/m 16,7 C 15,7 C 46,7 km/h (6 Bft) 100,00 %
05.08.2016 02:56 20,8 C 78 % 1007,8 hPa 0,0 l/m 23,6 km/h (4 Bft) W 269 0 min 0,000 mm 0,0 UV-I 0 W/m 16,8 C 16,7 C 33,8 km/h (5 Bft) 100,00 %
05.08.2016 02:58 20,8 C 78 % 1007,9 hPa 0,0 l/m 20,3 km/h (4 Bft) W 263 0 min 0,000 mm 0,0 UV-I 0 W/m 16,8 C 17,2 C 29,0 km/h (5 Bft) 97,56 %
05.08.2016 03:00 20,8 C 77 % 1007,9 hPa 0,0 l/m 21,7 km/h (4 Bft) SW 234 0 min 0,051 mm 0,0 UV-I 0 W/m 16,6 C 17,0 C 32,2 km/h (5 Bft) 100,00 %
05.08.2016 03:02 20,8 C 77 % 1008,0 hPa 0,0 l/m 24,4 km/h (4 Bft) W-SW 246 0 min 0,000 mm 0,0 UV-I 0 W/m 16,6 C 16,6 C 40,2 km/h (6 Bft) 100,00 %
05.08.2016 03:04 20,8 C 76 % 1008,1 hPa 0,0 l/m 26,9 km/h (4 Bft) W-SW 249 0 min 0,000 mm 0,0 UV-I 0 W/m 16,4 C 16,2 C 46,7 km/h (6 Bft) 100,00 %
05.08.2016 03:06 20,8 C 76 % 1008,1 hPa 0,0 l/m 33,8 km/h (5 Bft) W-SW 252 0 min 0,000 mm 0,0 UV-I 0 W/m 16,4 C 15,4 C 49,9 km/h (6 Bft) 100,00 %
05.08.2016 03:08 20,7 C 76 % 1008,2 hPa 0,0 l/m 29,5 km/h (5 Bft) W-SW 247 0 min 0,000 mm 0,0 UV-I 0 W/m 16,3 C 15,8 C 40,2 km/h (6 Bft) 100,00 %
05.08.2016 03:10 20,7 C 76 % 1008,2 hPa 0,0 l/m 29,7 km/h (5 Bft) SW 234 0 min 0,000 mm 0,0 UV-I 0 W/m 16,3 C 15,7 C 40,2 km/h (6 Bft) 97,62 %
05.08.2016 03:12 20,6 C 77 % 1008,2 hPa 0,0 l/m 31,2 km/h (5 Bft) W 265 0 min 0,000 mm 0,0 UV-I 0 W/m 16,4 C 15,4 C 49,9 km/h (6 Bft) 100,00 %
05.08.2016 03:14 20,6 C 77 % 1008,3 hPa 0,0 l/m 28,0 km/h (4 Bft) W-SW 248 0 min 0,000 mm 0,0 UV-I 0 W/m 16,4 C 15,8 C 49,9 km/h (6 Bft) 100,00 %
05.08.2016 03:16 20,6 C 77 % 1008,4 hPa 0,0 l/m 18,9 km/h (3 Bft) W 275 0 min 0,000 mm 0,0 UV-I 0 W/m 16,4 C 17,2 C 27,4 km/h (4 Bft) 96,00 %
05.08.2016 03:18 20,6 C 77 % 1008,4 hPa 0,0 l/m 23,7 km/h (4 Bft) SO 138 0 min 0,000 mm 0,0 UV-I 0 W/m 16,4 C 16,4 C 30,6 km/h (5 Bft) 95,74 %
05.08.2016 03:20 20,5 C 77 % 1008,5 hPa 0,0 l/m 26,4 km/h (4 Bft) W-SW 250 0 min 0,000 mm 0,0 UV-I 0 W/m 16,3 C 15,9 C 41,8 km/h (6 Bft) 100,00 %
05.08.2016 03:22 20,5 C 78 % 1008,6 hPa 0,0 l/m 22,1 km/h (4 Bft) W-SW 250 0 min 0,000 mm 0,0 UV-I 0 W/m 16,5 C 16,5 C 37,0 km/h (5 Bft) 100,00 %
05.08.2016 03:24 20,4 C 78 % 1008,5 hPa 0,0 l/m 34,3 km/h (5 Bft) W 261 0 min 0,000 mm 0,0 UV-I 0 W/m 16,4 C 14,8 C 45,1 km/h (6 Bft) 97,73 %
05.08.2016 03:26 20,4 C 78 % 1008,6 hPa 0,0 l/m 29,5 km/h (5 Bft) W 266 0 min 0,000 mm 0,0 UV-I 0 W/m 16,4 C 15,3 C 43,5 km/h (6 Bft) 100,00 %
05.08.2016 03:28 20,3 C 78 % 1008,7 hPa 0,0 l/m 29,8 km/h (5 Bft) W-SW 239 0 min 0,000 mm 0,0 UV-I 0 W/m 16,3 C 15,2 C 48,3 km/h (6 Bft) 97,14 %
05.08.2016 03:30 20,2 C 78 % 1008,7 hPa 0,0 l/m 27,3 km/h (4 Bft) W-SW 252 0 min 0,000 mm 0,0 UV-I 0 W/m 16,2 C 15,3 C 48,3 km/h (6 Bft) 100,00 %
05.08.2016 03:32 20,2 C 79 % 1008,8 hPa 0,0 l/m 26,7 km/h (4 Bft) W-SW 244 0 min 0,000 mm 0,0 UV-I 0 W/m 16,4 C 15,4 C 48,3 km/h (6 Bft) 100,00 %
05.08.2016 03:34 20,0 C 79 % 1008,8 hPa 0,0 l/m 25,0 km/h (4 Bft) W 269 0 min 0,000 mm 0,0 UV-I 0 W/m 16,2 C 15,4 C 43,5 km/h (6 Bft) 100,00 %
05.08.2016 03:36 19,9 C 80 % 1009,0 hPa 0,0 l/m 18,4 km/h (3 Bft) SW 230 0 min 0,000 mm 0,0 UV-I 0 W/m 16,3 C 16,4 C 32,2 km/h (5 Bft) 97,73 %
05.08.2016 03:38 19,8 C 80 % 1009,0 hPa 0,0 l/m 21,0 km/h (4 Bft) W-NW 286 0 min 0,000 mm 0,0 UV-I 0 W/m 16,2 C 15,8 C 33,8 km/h (5 Bft) 100,00 %
05.08.2016 03:40 19,7 C 80 % 1009,0 hPa 0,0 l/m 22,0 km/h (4 Bft) W-SW 251 0 min 0,000 mm 0,0 UV-I 0 W/m 16,1 C 15,5 C 33,8 km/h (5 Bft) 100,00 %
05.08.2016 03:42 19,6 C 80 % 1009,1 hPa 0,0 l/m 21,2 km/h (4 Bft) W 261 0 min 0,000 mm 0,0 UV-I 0 W/m 16,1 C 15,5 C 32,2 km/h (5 Bft) 100,00 %
05.08.2016 03:44 19,6 C 81 % 1009,1 hPa 0,0 l/m 22,7 km/h (4 Bft) W 263 0 min 0,000 mm 0,0 UV-I 0 W/m 16,2 C 15,2 C 32,2 km/h (5 Bft) 100,00 %
05.08.2016 03:46 19,4 C 80 % 1009,1 hPa 0,0 l/m 29,5 km/h (5 Bft) SW 223 0 min 0,000 mm 0,0 UV-I 0 W/m 15,9 C 13,9 C 41,8 km/h (6 Bft) 98,00 %
05.08.2016 03:48 19,4 C 80 % 1009,1 hPa 0,0 l/m 25,8 km/h (4 Bft) W 268 0 min 0,000 mm 0,0 UV-I 0 W/m 15,9 C 14,4 C 35,4 km/h (5 Bft) 100,00 %
05.08.2016 03:50 19,3 C 80 % 1009,1 hPa 0,0 l/m 30,1 km/h (5 Bft) W 271 0 min 0,000 mm 0,0 UV-I 0 W/m 15,8 C 13,7 C 38,6 km/h (5 Bft) 100,00 %
05.08.2016 03:52 19,2 C 80 % 1009,3 hPa 0,0 l/m 28,0 km/h (4 Bft) W-SW 239 0 min 0,000 mm 0,0 UV-I 0 W/m 15,7 C 13,9 C 37,0 km/h (5 Bft) 100,00 %
05.08.2016 03:54 19,2 C 80 % 1009,3 hPa 0,0 l/m 21,0 km/h (4 Bft) W-SW 238 0 min 0,000 mm 0,0 UV-I 0 W/m 15,7 C 15,0 C 29,0 km/h (5 Bft) 100,00 %
05.08.2016 03:56 19,1 C 80 % 1009,4 hPa 0,0 l/m 21,9 km/h (4 Bft) W-SW 254 0 min 0,000 mm 0,0 UV-I 0 W/m 15,6 C 14,7 C 33,8 km/h (5 Bft) 100,00 %
05.08.2016 03:58 19,1 C 80 % 1009,4 hPa 0,0 l/m 22,2 km/h (4 Bft) W 277 0 min 0,000 mm 0,0 UV-I 0 W/m 15,6 C 14,6 C 30,6 km/h (5 Bft) 97,73 %
05.08.2016 04:00 19,0 C 80 % 1009,5 hPa 0,0 l/m 23,6 km/h (4 Bft) W-SW 247 0 min 0,076 mm 0,0 UV-I 0 W/m 15,5 C 14,3 C 32,2 km/h (5 Bft) 100,00 %
05.08.2016 04:02 19,0 C 80 % 1009,5 hPa 0,0 l/m 26,3 km/h (4 Bft) W-SW 242 0 min 0,000 mm 0,0 UV-I 0 W/m 15,5 C 13,8 C 32,2 km/h (5 Bft) 100,00 %
05.08.2016 04:04 18,9 C 80 % 1009,4 hPa 0,0 l/m 15,7 km/h (3 Bft) SW 227 0 min 0,000 mm 0,0 UV-I 0 W/m 15,4 C 15,7 C 24,1 km/h (4 Bft) 100,00 %
05.08.2016 04:06 18,9 C 80 % 1009,4 hPa 0,0 l/m 19,1 km/h (3 Bft) W 259 0 min 0,000 mm 0,0 UV-I 0 W/m 15,4 C 15,0 C 27,4 km/h (4 Bft) 100,00 %
05.08.2016 04:08 18,8 C 80 % 1009,4 hPa 0,0 l/m 19,3 km/h (3 Bft) W 269 0 min 0,000 mm 0,0 UV-I 0 W/m 15,3 C 14,8 C 40,2 km/h (6 Bft) 100,00 %
05.08.2016 04:10 18,8 C 79 % 1009,4 hPa 0,0 l/m 24,3 km/h (4 Bft) W-SW 250 0 min 0,000 mm 0,0 UV-I 0 W/m 15,1 C 13,9 C 40,2 km/h (6 Bft) 98,21 %
05.08.2016 04:12 18,7 C 78 % 1009,4 hPa 0,0 l/m 27,2 km/h (4 Bft) W-SW 254 0 min 0,000 mm 0,0 UV-I 0 W/m 14,8 C 13,3 C 41,8 km/h (6 Bft) 100,00 %
05.08.2016 04:14 18,7 C 78 % 1009,4 hPa 0,0 l/m 21,2 km/h (4 Bft) W-SW 250 0 min 0,000 mm 0,0 UV-I 0 W/m 14,8 C 14,3 C 30,6 km/h (5 Bft) 95,74 %
05.08.2016 04:16 18,6 C 78 % 1009,4 hPa 0,0 l/m 17,1 km/h (3 Bft) W 264 0 min 0,000 mm 0,0 UV-I 0 W/m 14,7 C 15,0 C 25,7 km/h (4 Bft) 97,87 %
05.08.2016 04:18 18,6 C 78 % 1009,5 hPa 0,0 l/m 25,1 km/h (4 Bft) W-SW 247 0 min 0,000 mm 0,0 UV-I 0 W/m 14,7 C 13,5 C 43,5 km/h (6 Bft) 98,00 %
05.08.2016 04:20 18,6 C 78 % 1009,5 hPa 0,0 l/m 25,5 km/h (4 Bft) W-SW 244 0 min 0,000 mm 0,0 UV-I 0 W/m 14,7 C 13,4 C 40,2 km/h (6 Bft) 97,87 %
05.08.2016 04:22 18,5 C 78 % 1009,6 hPa 0,0 l/m 18,6 km/h (3 Bft) W-SW 250 0 min 0,000 mm 0,0 UV-I 0 W/m 14,6 C 14,6 C 25,7 km/h (4 Bft) 97,56 %
05.08.2016 04:24 18,5 C 78 % 1009,6 hPa 0,0 l/m 21,1 km/h (4 Bft) W-SW 254 0 min 0,000 mm 0,0 UV-I 0 W/m 14,6 C 14,0 C 37,0 km/h (5 Bft) 98,21 %
05.08.2016 04:26 18,4 C 78 % 1009,7 hPa 0,0 l/m 17,3 km/h (3 Bft) W-SW 255 0 min 0,000 mm 0,0 UV-I 0 W/m 14,5 C 14,7 C 25,7 km/h (4 Bft) 97,37 %
05.08.2016 04:28 18,4 C 78 % 1009,7 hPa 0,0 l/m 23,1 km/h (4 Bft) W-SW 248 0 min 0,000 mm 0,0 UV-I 0 W/m 14,5 C 13,5 C 43,5 km/h (6 Bft) 97,62 %
05.08.2016 04:30 18,4 C 78 % 1009,7 hPa 0,0 l/m 22,0 km/h (4 Bft) SW 225 0 min 0,000 mm 0,0 UV-I 0 W/m 14,5 C 13,7 C 48,3 km/h (6 Bft) 96,00 %
05.08.2016 04:32 18,4 C 77 % 1009,7 hPa 0,0 l/m 20,4 km/h (4 Bft) W-SW 253 0 min 0,000 mm 0,0 UV-I 0 W/m 14,3 C 14,1 C 29,0 km/h (5 Bft) 97,87 %
05.08.2016 04:34 18,4 C 77 % 1009,7 hPa 0,0 l/m 18,5 km/h (3 Bft) W 259 0 min 0,000 mm 0,0 UV-I 0 W/m 14,3 C 14,5 C 25,7 km/h (4 Bft) 98,00 %
05.08.2016 04:36 18,4 C 77 % 1009,7 hPa 0,0 l/m 22,2 km/h (4 Bft) W-SW 238 0 min 0,000 mm 0,0 UV-I 0 W/m 14,3 C 13,7 C 29,0 km/h (5 Bft) 93,18 %
05.08.2016 04:38 18,4 C 77 % 1009,7 hPa 0,0 l/m 22,0 km/h (4 Bft) W-SW 246 0 min 0,000 mm 0,0 UV-I 0 W/m 14,3 C 13,7 C 33,8 km/h (5 Bft) 96,23 %
05.08.2016 04:40 18,4 C 77 % 1009,7 hPa 0,0 l/m 20,4 km/h (4 Bft) W 279 0 min 0,000 mm 0,0 UV-I 0 W/m 14,3 C 14,1 C 32,2 km/h (5 Bft) 97,56 %
05.08.2016 04:42 18,4 C 77 % 1009,7 hPa 0,0 l/m 18,5 km/h (3 Bft) S-SW 213 0 min 0,000 mm 0,0 UV-I 0 W/m 14,3 C 14,5 C 29,0 km/h (5 Bft) 98,00 %
05.08.2016 04:44 18,4 C 77 % 1009,7 hPa 0,0 l/m 17,4 km/h (3 Bft) SW 223 0 min 0,000 mm 0,0 UV-I 0 W/m 14,3 C 14,7 C 25,7 km/h (4 Bft) 94,00 %
05.08.2016 04:46 18,3 C 77 % 1009,7 hPa 0,0 l/m 22,7 km/h (4 Bft) SW 219 0 min 0,000 mm 0,0 UV-I 0 W/m 14,2 C 13,5 C 32,2 km/h (5 Bft) 98,00 %
05.08.2016 04:48 18,3 C 77 % 1009,7 hPa 0,0 l/m 18,2 km/h (3 Bft) W 264 0 min 0,000 mm 0,0 UV-I 0 W/m 14,2 C 14,4 C 27,4 km/h (4 Bft) 100,00 %
05.08.2016 04:50 18,3 C 77 % 1009,8 hPa 0,0 l/m 20,4 km/h (4 Bft) W 262 0 min 0,000 mm 0,0 UV-I 0 W/m 14,2 C 13,9 C 29,0 km/h (5 Bft) 97,92 %
05.08.2016 04:52 18,3 C 77 % 1009,8 hPa 0,0 l/m 13,0 km/h (3 Bft) W-SW 244 0 min 0,000 mm 0,0 UV-I 0 W/m 14,2 C 15,8 C 22,5 km/h (4 Bft) 100,00 %
05.08.2016 04:54 18,3 C 77 % 1009,9 hPa 0,0 l/m 15,8 km/h (3 Bft) SW 235 0 min 0,000 mm 0,0 UV-I 0 W/m 14,2 C 15,0 C 24,1 km/h (4 Bft) 98,00 %
05.08.2016 04:56 18,3 C 77 % 1009,9 hPa 0,0 l/m 16,3 km/h (3 Bft) SW 232 0 min 0,000 mm 0,0 UV-I 0 W/m 14,2 C 14,9 C 25,7 km/h (4 Bft) 100,00 %
05.08.2016 04:58 18,3 C 77 % 1010,0 hPa 0,0 l/m 16,8 km/h (3 Bft) W-SW 246 0 min 0,000 mm 0,0 UV-I 0 W/m 14,2 C 14,7 C 27,4 km/h (4 Bft) 100,00 %
05.08.2016 05:00 18,3 C 77 % 1010,0 hPa 0,0 l/m 18,6 km/h (3 Bft) W-SW 251 0 min 0,051 mm 0,0 UV-I 0 W/m 14,2 C 14,3 C 27,4 km/h (4 Bft) 100,00 %
05.08.2016 05:02 18,3 C 77 % 1010,0 hPa 0,0 l/m 15,2 km/h (3 Bft) W 259 0 min 0,000 mm 0,0 UV-I 0 W/m 14,2 C 15,1 C 22,5 km/h (4 Bft) 100,00 %
05.08.2016 05:04 18,3 C 77 % 1010,0 hPa 0,0 l/m 15,2 km/h (3 Bft) W-SW 252 0 min 0,000 mm 0,0 UV-I 0 W/m 14,2 C 15,1 C 22,5 km/h (4 Bft) 100,00 %
05.08.2016 05:06 18,3 C 77 % 1010,0 hPa 0,0 l/m 14,3 km/h (3 Bft) W 264 0 min 0,000 mm 0,0 UV-I 0 W/m 14,2 C 15,4 C 22,5 km/h (4 Bft) 97,22 %
05.08.2016 05:08 18,3 C 77 % 1010,0 hPa 0,0 l/m 15,4 km/h (3 Bft) W-SW 240 0 min 0,000 mm 0,0 UV-I 0 W/m 14,2 C 15,1 C 19,3 km/h (3 Bft) 100,00 %
05.08.2016 05:10 18,3 C 77 % 1010,1 hPa 0,0 l/m 14,7 km/h (3 Bft) S-SW 213 0 min 0,000 mm 0,0 UV-I 0 W/m 14,2 C 15,3 C 24,1 km/h (4 Bft) 97,62 %
05.08.2016 05:12 18,3 C 77 % 1010,1 hPa 0,0 l/m 15,5 km/h (3 Bft) W-SW 248 0 min 0,000 mm 0,0 UV-I 0 W/m 14,2 C 15,1 C 24,1 km/h (4 Bft) 100,00 %
05.08.2016 05:14 18,3 C 77 % 1010,2 hPa 0,0 l/m 14,3 km/h (3 Bft) W-SW 249 0 min 0,000 mm 0,0 UV-I 0 W/m 14,2 C 15,4 C 19,3 km/h (3 Bft) 100,00 %
05.08.2016 05:16 18,3 C 77 % 1010,2 hPa 0,0 l/m 12,5 km/h (3 Bft) W 271 0 min 0,000 mm 0,0 UV-I 0 W/m 14,2 C 15,9 C 17,7 km/h (3 Bft) 100,00 %
05.08.2016 05:18 18,3 C 77 % 1010,2 hPa 0,0 l/m 12,4 km/h (3 Bft) SW 229 0 min 0,000 mm 0,0 UV-I 0 W/m 14,2 C 15,9 C 19,3 km/h (3 Bft) 100,00 %
05.08.2016 05:20 18,3 C 77 % 1010,1 hPa 0,0 l/m 15,7 km/h (3 Bft) W 264 0 min 0,000 mm 0,0 UV-I 0 W/m 14,2 C 15,0 C 24,1 km/h (4 Bft) 100,00 %
05.08.2016 05:22 18,3 C 77 % 1010,2 hPa 0,0 l/m 18,0 km/h (3 Bft) W-SW 244 0 min 0,000 mm 0,0 UV-I 0 W/m 14,2 C 14,4 C 24,1 km/h (4 Bft) 97,56 %
05.08.2016 05:24 18,3 C 77 % 1010,2 hPa 0,0 l/m 13,9 km/h (3 Bft) W-SW 248 0 min 0,000 mm 0,0 UV-I 0 W/m 14,2 C 15,5 C 20,9 km/h (4 Bft) 100,00 %
05.08.2016 05:26 18,3 C 77 % 1010,2 hPa 0,0 l/m 15,5 km/h (3 Bft) W-SW 245 0 min 0,000 mm 0,0 UV-I 0 W/m 14,2 C 15,1 C 22,5 km/h (4 Bft) 100,00 %
05.08.2016 05:28 18,3 C 77 % 1010,3 hPa 0,0 l/m 14,0 km/h (3 Bft) W-SW 239 0 min 0,000 mm 0,0 UV-I 0 W/m 14,2 C 15,5 C 24,1 km/h (4 Bft) 100,00 %
05.08.2016 05:30 18,3 C 77 % 1010,2 hPa 0,0 l/m 16,1 km/h (3 Bft) SW 229 0 min 0,000 mm 0,0 UV-I 0 W/m 14,2 C 14,9 C 27,4 km/h (4 Bft) 100,00 %
05.08.2016 05:32 18,3 C 77 % 1010,3 hPa 0,0 l/m 17,7 km/h (3 Bft) W 268 0 min 0,000 mm 0,0 UV-I 0 W/m 14,2 C 14,5 C 27,4 km/h (4 Bft) 100,00 %
05.08.2016 05:34 18,3 C 77 % 1010,2 hPa 0,0 l/m 13,9 km/h (3 Bft) SW 217 0 min 0,000 mm 0,0 UV-I 0 W/m 14,2 C 15,5 C 22,5 km/h (4 Bft) 100,00 %
05.08.2016 05:36 18,3 C 77 % 1010,3 hPa 0,0 l/m 13,5 km/h (3 Bft) W-SW 245 0 min 0,000 mm 0,0 UV-I 0 W/m 14,2 C 15,6 C 17,7 km/h (3 Bft) 100,00 %
05.08.2016 05:38 18,3 C 77 % 1010,3 hPa 0,0 l/m 12,8 km/h (3 Bft) W-SW 249 0 min 0,000 mm 0,0 UV-I 0 W/m 14,2 C 15,8 C 17,7 km/h (3 Bft) 100,00 %
05.08.2016 05:40 18,3 C 77 % 1010,3 hPa 0,0 l/m 13,2 km/h (3 Bft) W-SW 245 0 min 0,000 mm 0,0 UV-I 0 W/m 14,2 C 15,7 C 19,3 km/h (3 Bft) 98,00 %
05.08.2016 05:42 18,3 C 78 % 1010,3 hPa 0,0 l/m 13,6 km/h (3 Bft) W-SW 245 0 min 0,000 mm 0,0 UV-I 0 W/m 14,4 C 15,6 C 19,3 km/h (3 Bft) 98,00 %
05.08.2016 05:44 18,3 C 78 % 1010,3 hPa 0,0 l/m 12,5 km/h (3 Bft) W-SW 254 0 min 0,000 mm 0,0 UV-I 0 W/m 14,4 C 15,9 C 17,7 km/h (3 Bft) 100,00 %
05.08.2016 05:46 18,3 C 78 % 1010,3 hPa 0,0 l/m 12,5 km/h (3 Bft) W 276 0 min 0,000 mm 0,0 UV-I 0 W/m 14,4 C 15,9 C 20,9 km/h (4 Bft) 100,00 %
05.08.2016 05:48 18,3 C 78 % 1010,4 hPa 0,0 l/m 14,9 km/h (3 Bft) SW 232 0 min 0,000 mm 0,0 UV-I 0 W/m 14,4 C 15,2 C 24,1 km/h (4 Bft) 98,18 %
05.08.2016 05:50 18,3 C 78 % 1010,4 hPa 0,0 l/m 14,7 km/h (3 Bft) W-SW 250 0 min 0,000 mm 0,0 UV-I 2 W/m 14,4 C 15,3 C 19,3 km/h (3 Bft) 100,00 %
05.08.2016 05:52 18,3 C 78 % 1010,4 hPa 0,0 l/m 12,9 km/h (3 Bft) W-SW 258 0 min 0,000 mm 0,0 UV-I 5 W/m 14,4 C 15,8 C 19,3 km/h (3 Bft) 100,00 %
05.08.2016 05:54 18,3 C 78 % 1010,3 hPa 0,0 l/m 14,2 km/h (3 Bft) W-SW 240 0 min 0,000 mm 0,0 UV-I 6 W/m 14,4 C 15,4 C 19,3 km/h (3 Bft) 100,00 %
05.08.2016 05:56 18,3 C 78 % 1010,3 hPa 0,0 l/m 13,0 km/h (3 Bft) W 265 0 min 0,000 mm 0,0 UV-I 7 W/m 14,4 C 15,8 C 19,3 km/h (3 Bft) 98,00 %
05.08.2016 05:58 18,3 C 78 % 1010,3 hPa 0,0 l/m 13,8 km/h (3 Bft) W 260 0 min 0,000 mm 0,0 UV-I 8 W/m 14,4 C 15,5 C 19,3 km/h (3 Bft) 100,00 %
05.08.2016 06:00 18,3 C 78 % 1010,4 hPa 0,0 l/m 13,4 km/h (3 Bft) W 269 0 min 0,050 mm 0,0 UV-I 9 W/m 14,4 C 15,6 C 19,3 km/h (3 Bft) 98,11 %
05.08.2016 06:02 18,2 C 78 % 1010,3 hPa 0,0 l/m 10,8 km/h (2 Bft) W-SW 251 0 min 0,000 mm 0,0 UV-I 9 W/m 14,3 C 16,4 C 17,7 km/h (3 Bft) 100,00 %
05.08.2016 06:04 18,2 C 79 % 1010,3 hPa 0,0 l/m 14,6 km/h (3 Bft) W-SW 246 0 min 0,000 mm 0,0 UV-I 9 W/m 14,5 C 15,2 C 20,9 km/h (4 Bft) 98,11 %
05.08.2016 06:06 18,2 C 79 % 1010,4 hPa 0,0 l/m 17,6 km/h (3 Bft) W-SW 246 0 min 0,000 mm 0,0 UV-I 11 W/m 14,5 C 14,4 C 22,5 km/h (4 Bft) 100,00 %
05.08.2016 06:08 18,2 C 79 % 1010,4 hPa 0,0 l/m 11,3 km/h (2 Bft) SW 217 0 min 0,000 mm 0,0 UV-I 10 W/m 14,5 C 16,2 C 19,3 km/h (3 Bft) 100,00 %
05.08.2016 06:10 18,2 C 79 % 1010,4 hPa 0,0 l/m 12,5 km/h (3 Bft) W-SW 237 0 min 0,000 mm 0,0 UV-I 9 W/m 14,5 C 15,8 C 22,5 km/h (4 Bft) 98,00 %
05.08.2016 06:12 18,2 C 80 % 1010,5 hPa 0,0 l/m 13,9 km/h (3 Bft) W-SW 246 0 min 0,000 mm 0,0 UV-I 10 W/m 14,7 C 15,4 C 22,5 km/h (4 Bft) 97,87 %
05.08.2016 06:14 18,2 C 80 % 1010,4 hPa 0,0 l/m 15,9 km/h (3 Bft) S-SW 213 0 min 0,000 mm 0,0 UV-I 11 W/m 14,7 C 14,8 C 25,7 km/h (4 Bft) 95,74 %
05.08.2016 06:16 18,2 C 80 % 1010,4 hPa 0,0 l/m 11,3 km/h (2 Bft) W 263 0 min 0,000 mm 0,0 UV-I 11 W/m 14,7 C 16,2 C 16,1 km/h (3 Bft) 97,87 %
05.08.2016 06:18 18,2 C 80 % 1010,5 hPa 0,0 l/m 10,8 km/h (2 Bft) SW 227 0 min 0,000 mm 0,0 UV-I 11 W/m 14,7 C 16,4 C 17,7 km/h (3 Bft) 94,74 %
05.08.2016 06:20 18,1 C 81 % 1010,5 hPa 0,0 l/m 11,9 km/h (2 Bft) W-SW 248 0 min 0,000 mm 0,0 UV-I 9 W/m 14,8 C 15,9 C 17,7 km/h (3 Bft) 98,11 %
05.08.2016 06:22 18,1 C 80 % 1010,4 hPa 0,0 l/m 12,1 km/h (2 Bft) W-SW 237 0 min 0,000 mm 0,0 UV-I 9 W/m 14,6 C 15,8 C 17,7 km/h (3 Bft) 98,00 %
05.08.2016 06:24 18,1 C 81 % 1010,5 hPa 0,0 l/m 10,8 km/h (2 Bft) SW 217 0 min 0,000 mm 0,0 UV-I 7 W/m 14,8 C 16,3 C 20,9 km/h (4 Bft) 94,74 %
05.08.2016 06:26 18,1 C 81 % 1010,5 hPa 0,0 l/m 11,2 km/h (2 Bft) W 267 0 min 0,000 mm 0,0 UV-I 9 W/m 14,8 C 16,1 C 22,5 km/h (4 Bft) 98,11 %
05.08.2016 06:28 18,1 C 81 % 1010,6 hPa 0,0 l/m 10,9 km/h (2 Bft) W 262 0 min 0,000 mm 0,0 UV-I 11 W/m 14,8 C 16,2 C 17,7 km/h (3 Bft) 93,62 %
05.08.2016 06:30 18,0 C 81 % 1010,6 hPa 0,0 l/m 11,7 km/h (2 Bft) S 190 0 min 0,000 mm 0,0 UV-I 14 W/m 14,7 C 15,8 C 17,7 km/h (3 Bft) 100,00 %
05.08.2016 06:32 18,0 C 81 % 1010,6 hPa 0,0 l/m 13,6 km/h (3 Bft) W-SW 248 0 min 0,000 mm 0,0 UV-I 14 W/m 14,7 C 15,2 C 20,9 km/h (4 Bft) 97,62 %
05.08.2016 06:34 18,0 C 81 % 1010,6 hPa 0,0 l/m 10,5 km/h (2 Bft) SW 230 0 min 0,000 mm 0,0 UV-I 14 W/m 14,7 C 16,2 C 16,1 km/h (3 Bft) 94,34 %
05.08.2016 06:36 18,0 C 81 % 1010,6 hPa 0,0 l/m 8,2 km/h (2 Bft) W 260 0 min 0,000 mm 0,0 UV-I 18 W/m 14,7 C 17,2 C 12,9 km/h (3 Bft) 92,86 %
05.08.2016 06:38 18,0 C 81 % 1010,7 hPa 0,0 l/m 10,8 km/h (2 Bft) W-SW 242 0 min 0,000 mm 0,0 UV-I 18 W/m 14,7 C 16,1 C 17,7 km/h (3 Bft) 97,56 %
05.08.2016 06:40 18,0 C 82 % 1010,6 hPa 0,0 l/m 10,4 km/h (2 Bft) W-SW 252 0 min 0,000 mm 0,0 UV-I 19 W/m 14,9 C 16,3 C 16,1 km/h (3 Bft) 95,74 %
05.08.2016 06:42 17,9 C 82 % 1010,7 hPa 0,0 l/m 11,6 km/h (2 Bft) W-NW 286 0 min 0,000 mm 0,0 UV-I 20 W/m 14,8 C 15,7 C 16,1 km/h (3 Bft) 96,00 %
05.08.2016 06:44 18,0 C 81 % 1010,6 hPa 0,0 l/m 17,2 km/h (3 Bft) W 259 0 min 0,000 mm 0,0 UV-I 24 W/m 14,7 C 14,3 C 20,9 km/h (4 Bft) 98,00 %
05.08.2016 06:46 18,0 C 81 % 1010,6 hPa 0,0 l/m 13,8 km/h (3 Bft) W-SW 256 0 min 0,000 mm 0,0 UV-I 28 W/m 14,7 C 15,2 C 22,5 km/h (4 Bft) 97,56 %
05.08.2016 06:48 18,0 C 81 % 1010,7 hPa 0,0 l/m 13,2 km/h (3 Bft) W 280 0 min 0,000 mm 0,0 UV-I 26 W/m 14,7 C 15,3 C 19,3 km/h (3 Bft) 100,00 %
05.08.2016 06:50 18,0 C 82 % 1010,7 hPa 0,0 l/m 13,9 km/h (3 Bft) W-SW 248 0 min 0,000 mm 0,0 UV-I 28 W/m 14,9 C 15,1 C 20,9 km/h (4 Bft) 97,56 %
05.08.2016 06:52 18,0 C 81 % 1010,7 hPa 0,0 l/m 13,2 km/h (3 Bft) W-SW 257 0 min 0,000 mm 0,0 UV-I 32 W/m 14,7 C 15,3 C 17,7 km/h (3 Bft) 100,00 %
05.08.2016 06:54 18,0 C 82 % 1010,8 hPa 0,0 l/m 12,1 km/h (2 Bft) W 264 0 min 0,000 mm 0,0 UV-I 31 W/m 14,9 C 15,7 C 20,9 km/h (4 Bft) 98,00 %
05.08.2016 06:56 18,0 C 82 % 1010,8 hPa 0,0 l/m 7,3 km/h (2 Bft) W 259 0 min 0,000 mm 0,0 UV-I 31 W/m 14,9 C 17,6 C 12,9 km/h (3 Bft) 97,87 %
05.08.2016 06:58 18,0 C 82 % 1010,8 hPa 0,0 l/m 7,4 km/h (2 Bft) W-SW 248 0 min 0,000 mm 0,0 UV-I 29 W/m 14,9 C 17,5 C 9,7 km/h (2 Bft) 100,00 %
05.08.2016 07:00 18,0 C 82 % 1010,8 hPa 0,0 l/m 7,4 km/h (2 Bft) SW 225 0 min 0,051 mm 0,0 UV-I 28 W/m 14,9 C 17,5 C 12,9 km/h (3 Bft) 100,00 %
05.08.2016 07:02 18,0 C 82 % 1010,8 hPa 0,0 l/m 7,8 km/h (2 Bft) W 262 0 min 0,000 mm 0,0 UV-I 26 W/m 14,9 C 17,3 C 12,9 km/h (3 Bft) 100,00 %
05.08.2016 07:04 18,0 C 82 % 1010,9 hPa 0,0 l/m 7,9 km/h (2 Bft) W-SW 246 0 min 0,000 mm 0,0 UV-I 33 W/m 14,9 C 17,3 C 12,9 km/h (3 Bft) 98,44 %
05.08.2016 07:06 18,0 C 82 % 1010,9 hPa 0,0 l/m 7,9 km/h (2 Bft) W-SW 249 0 min 0,000 mm 0,0 UV-I 40 W/m 14,9 C 17,3 C 16,1 km/h (3 Bft) 100,00 %
05.08.2016 07:08 18,0 C 82 % 1010,9 hPa 0,0 l/m 6,3 km/h (2 Bft) W 277 0 min 0,000 mm 0,0 UV-I 38 W/m 14,9 C 18,0 C 12,9 km/h (3 Bft) 98,00 %
05.08.2016 07:10 18,1 C 82 % 1011,0 hPa 0,0 l/m 7,4 km/h (2 Bft) W-SW 242 0 min 0,000 mm 0,0 UV-I 32 W/m 15,0 C 17,6 C 14,5 km/h (3 Bft) 97,87 %
05.08.2016 07:12 18,1 C 82 % 1011,0 hPa 0,0 l/m 10,5 km/h (2 Bft) W-SW 246 0 min 0,000 mm 0,0 UV-I 30 W/m 15,0 C 16,4 C 16,1 km/h (3 Bft) 97,44 %
05.08.2016 07:14 18,1 C 82 % 1011,0 hPa 0,0 l/m 8,4 km/h (2 Bft) W-SW 238 0 min 0,000 mm 0,0 UV-I 28 W/m 15,0 C 17,2 C 14,5 km/h (3 Bft) 100,00 %
05.08.2016 07:16 18,1 C 82 % 1011,0 hPa 0,0 l/m 7,2 km/h (2 Bft) W 263 0 min 0,000 mm 0,0 UV-I 27 W/m 15,0 C 17,7 C 12,9 km/h (3 Bft) 100,00 %
05.08.2016 07:18 18,1 C 82 % 1010,9 hPa 0,0 l/m 9,9 km/h (2 Bft) W 267 0 min 0,000 mm 0,0 UV-I 31 W/m 15,0 C 16,6 C 16,1 km/h (3 Bft) 100,00 %
05.08.2016 07:20 18,1 C 82 % 1010,9 hPa 0,0 l/m 6,2 km/h (2 Bft) W-SW 256 0 min 0,000 mm 0,0 UV-I 39 W/m 15,0 C 18,1 C 12,9 km/h (3 Bft) 97,73 %
05.08.2016 07:22 18,1 C 83 % 1010,7 hPa 0,0 l/m 3,6 km/h (1 Bft) W 263 0 min 0,000 mm 0,0 UV-I 56 W/m 15,2 C 18,1 C 6,4 km/h (2 Bft) 100,00 %
05.08.2016 07:24 18,1 C 82 % 1010,7 hPa 0,0 l/m 5,0 km/h (1 Bft) W-NW 287 0 min 0,000 mm 0,0 UV-I 81 W/m 15,0 C 18,1 C 11,3 km/h (2 Bft) 97,37 %
05.08.2016 07:26 18,1 C 82 % 1010,7 hPa 0,0 l/m 7,5 km/h (2 Bft) W-SW 240 0 min 0,000 mm 0,0 UV-I 103 W/m 15,0 C 17,6 C 12,9 km/h (3 Bft) 100,00 %
05.08.2016 07:28 18,2 C 82 % 1010,8 hPa 0,0 l/m 7,9 km/h (2 Bft) W-SW 241 0 min 0,000 mm 0,0 UV-I 114 W/m 15,1 C 17,5 C 14,5 km/h (3 Bft) 98,00 %
05.08.2016 07:30 18,2 C 82 % 1010,8 hPa 0,0 l/m 9,0 km/h (2 Bft) W-SW 241 0 min 0,000 mm 0,0 UV-I 134 W/m 15,1 C 17,0 C 14,5 km/h (3 Bft) 100,00 %
05.08.2016 07:32 18,3 C 82 % 1010,7 hPa 0,0 l/m 8,4 km/h (2 Bft) W 265 2 min 0,000 mm 0,0 UV-I 152 W/m 15,2 C 17,4 C 12,9 km/h (3 Bft) 100,00 %
05.08.2016 07:34 18,3 C 82 % 1010,7 hPa 0,0 l/m 10,7 km/h (2 Bft) W 261 2 min 0,000 mm 0,0 UV-I 168 W/m 15,2 C 16,5 C 16,1 km/h (3 Bft) 97,56 %
05.08.2016 07:36 18,4 C 82 % 1010,8 hPa 0,0 l/m 11,2 km/h (2 Bft) SW 215 2 min 0,000 mm 0,0 UV-I 173 W/m 15,3 C 16,5 C 19,3 km/h (3 Bft) 100,00 %
05.08.2016 07:38 18,4 C 82 % 1010,8 hPa 0,0 l/m 11,7 km/h (2 Bft) W-SW 248 0 min 0,000 mm 0,0 UV-I 143 W/m 15,3 C 16,3 C 19,3 km/h (3 Bft) 100,00 %
05.08.2016 07:40 18,4 C 81 % 1010,9 hPa 0,0 l/m 8,2 km/h (2 Bft) W-SW 249 0 min 0,000 mm 0,0 UV-I 125 W/m 15,1 C 17,6 C 16,1 km/h (3 Bft) 98,00 %
05.08.2016 07:42 18,4 C 82 % 1010,9 hPa 0,0 l/m 13,9 km/h (3 Bft) W-SW 252 0 min 0,000 mm 0,0 UV-I 99 W/m 15,3 C 15,6 C 22,5 km/h (4 Bft) 100,00 %
05.08.2016 07:44 18,4 C 82 % 1010,9 hPa 0,0 l/m 8,1 km/h (2 Bft) SW 231 0 min 0,000 mm 0,0 UV-I 84 W/m 15,3 C 17,6 C 19,3 km/h (3 Bft) 100,00 %
05.08.2016 07:46 18,4 C 82 % 1010,9 hPa 0,0 l/m 9,8 km/h (2 Bft) SW 225 0 min 0,000 mm 0,0 UV-I 77 W/m 15,3 C 16,9 C 12,9 km/h (3 Bft) 100,00 %
05.08.2016 07:48 18,3 C 82 % 1010,9 hPa 0,0 l/m 10,1 km/h (2 Bft) W-NW 282 0 min 0,000 mm 0,0 UV-I 69 W/m 15,2 C 16,7 C 16,1 km/h (3 Bft) 100,00 %
05.08.2016 07:50 18,3 C 82 % 1011,0 hPa 0,0 l/m 14,4 km/h (3 Bft) W-SW 240 0 min 0,000 mm 0,0 UV-I 63 W/m 15,2 C 15,4 C 22,5 km/h (4 Bft) 100,00 %
05.08.2016 07:52 18,3 C 82 % 1011,0 hPa 0,0 l/m 12,4 km/h (3 Bft) W-SW 256 0 min 0,000 mm 0,0 UV-I 63 W/m 15,2 C 15,9 C 19,3 km/h (3 Bft) 100,00 %
05.08.2016 07:54 18,3 C 82 % 1011,0 hPa 0,0 l/m 14,7 km/h (3 Bft) W-SW 249 0 min 0,000 mm 0,0 UV-I 62 W/m 15,2 C 15,3 C 20,9 km/h (4 Bft) 100,00 %
05.08.2016 07:56 18,3 C 82 % 1011,0 hPa 0,0 l/m 9,0 km/h (2 Bft) W 260 0 min 0,000 mm 0,0 UV-I 60 W/m 15,2 C 17,1 C 12,9 km/h (3 Bft) 100,00 %
05.08.2016 07:58 18,2 C 82 % 1011,0 hPa 0,0 l/m 8,7 km/h (2 Bft) W-SW 248 0 min 0,000 mm 0,0 UV-I 62 W/m 15,1 C 17,2 C 14,5 km/h (3 Bft) 100,00 %
05.08.2016 08:00 18,2 C 82 % 1011,0 hPa 0,0 l/m 11,7 km/h (2 Bft) W-SW 254 0 min 0,076 mm 0,0 UV-I 63 W/m 15,1 C 16,1 C 16,1 km/h (3 Bft) 100,00 %
05.08.2016 08:02 18,2 C 82 % 1011,0 hPa 0,0 l/m 12,3 km/h (3 Bft) W 259 0 min 0,000 mm 0,0 UV-I 65 W/m 15,1 C 15,9 C 19,3 km/h (3 Bft) 100,00 %
05.08.2016 08:04 18,2 C 83 % 1011,0 hPa 0,0 l/m 9,8 km/h (2 Bft) W-SW 244 0 min 0,000 mm 0,0 UV-I 65 W/m 15,3 C 16,7 C 16,1 km/h (3 Bft) 98,00 %
05.08.2016 08:06 18,2 C 83 % 1011,1 hPa 0,0 l/m 10,0 km/h (2 Bft) SW 234 0 min 0,000 mm 0,0 UV-I 68 W/m 15,3 C 16,7 C 16,1 km/h (3 Bft) 100,00 %
05.08.2016 08:08 18,2 C 83 % 1011,0 hPa 0,0 l/m 10,3 km/h (2 Bft) W-SW 242 0 min 0,000 mm 0,0 UV-I 71 W/m 15,3 C 16,5 C 16,1 km/h (3 Bft) 100,00 %
05.08.2016 08:10 18,2 C 83 % 1011,1 hPa 0,0 l/m 9,3 km/h (2 Bft) W-SW 252 0 min 0,000 mm 0,0 UV-I 66 W/m 15,3 C 16,9 C 14,5 km/h (3 Bft) 97,87 %
05.08.2016 08:12 18,2 C 83 % 1011,0 hPa 0,0 l/m 12,2 km/h (2 Bft) W-SW 242 0 min 0,000 mm 0,0 UV-I 58 W/m 15,3 C 15,9 C 17,7 km/h (3 Bft) 97,56 %
05.08.2016 08:14 18,2 C 83 % 1011,0 hPa 0,0 l/m 10,8 km/h (2 Bft) W-SW 245 0 min 0,000 mm 0,0 UV-I 52 W/m 15,3 C 16,4 C 16,1 km/h (3 Bft) 96,43 %
05.08.2016 08:16 18,2 C 83 % 1011,2 hPa 0,0 l/m 11,1 km/h (2 Bft) SW 217 0 min 0,000 mm 0,0 UV-I 45 W/m 15,3 C 16,3 C 14,5 km/h (3 Bft) 96,00 %
05.08.2016 08:18 18,2 C 83 % 1011,2 hPa 0,0 l/m 7,8 km/h (2 Bft) W-SW 248 0 min 0,000 mm 0,0 UV-I 40 W/m 15,3 C 17,6 C 14,5 km/h (3 Bft) 94,74 %
05.08.2016 08:20 18,2 C 83 % 1011,2 hPa 0,0 l/m 10,1 km/h (2 Bft) SW 220 0 min 0,000 mm 0,0 UV-I 36 W/m 15,3 C 16,6 C 16,1 km/h (3 Bft) 98,11 %
05.08.2016 08:22 18,1 C 83 % 1011,3 hPa 0,0 l/m 8,9 km/h (2 Bft) SW 215 0 min 0,000 mm 0,0 UV-I 39 W/m 15,2 C 17,0 C 14,5 km/h (3 Bft) 98,00 %
05.08.2016 08:24 18,1 C 83 % 1011,3 hPa 0,0 l/m 12,9 km/h (3 Bft) W 263 0 min 0,000 mm 0,0 UV-I 37 W/m 15,2 C 15,6 C 19,3 km/h (3 Bft) 97,87 %
05.08.2016 08:26 18,1 C 83 % 1011,3 hPa 0,0 l/m 11,1 km/h (2 Bft) W-SW 246 0 min 0,000 mm 0,0 UV-I 34 W/m 15,2 C 16,1 C 17,7 km/h (3 Bft) 95,24 %
05.08.2016 08:28 18,1 C 84 % 1011,3 hPa 0,0 l/m 7,6 km/h (2 Bft) W-SW 255 0 min 0,000 mm 0,0 UV-I 33 W/m 15,4 C 17,5 C 12,9 km/h (3 Bft) 98,00 %
05.08.2016 08:30 18,1 C 84 % 1011,3 hPa 0,0 l/m 11,7 km/h (2 Bft) W-SW 246 0 min 0,000 mm 0,0 UV-I 33 W/m 15,4 C 15,9 C 17,7 km/h (3 Bft) 97,37 %
05.08.2016 08:32 18,1 C 84 % 1011,2 hPa 0,0 l/m 10,2 km/h (2 Bft) W 272 0 min 0,000 mm 0,0 UV-I 33 W/m 15,4 C 16,5 C 22,5 km/h (4 Bft) 96,23 %
05.08.2016 08:34 18,0 C 84 % 1011,2 hPa 0,0 l/m 11,7 km/h (2 Bft) W-SW 244 0 min 0,000 mm 0,0 UV-I 30 W/m 15,3 C 15,8 C 17,7 km/h (3 Bft) 93,18 %
05.08.2016 08:36 18,0 C 84 % 1011,3 hPa 0,0 l/m 15,7 km/h (3 Bft) W-SW 249 0 min 0,000 mm 0,0 UV-I 28 W/m 15,3 C 14,6 C 25,7 km/h (4 Bft) 100,00 %
05.08.2016 08:38 17,9 C 84 % 1011,2 hPa 0,0 l/m 16,2 km/h (3 Bft) W-SW 250 0 min 0,000 mm 0,0 UV-I 23 W/m 15,2 C 14,4 C 22,5 km/h (4 Bft) 97,87 %
05.08.2016 08:40 17,9 C 84 % 1011,2 hPa 0,0 l/m 13,6 km/h (3 Bft) SW 232 0 min 0,000 mm 0,0 UV-I 24 W/m 15,2 C 15,1 C 20,9 km/h (4 Bft) 95,74 %
05.08.2016 08:42 17,8 C 85 % 1011,2 hPa 0,0 l/m 11,3 km/h (2 Bft) W-SW 252 0 min 0,000 mm 0,0 UV-I 27 W/m 15,2 C 15,7 C 19,3 km/h (3 Bft) 97,37 %
05.08.2016 08:44 17,8 C 85 % 1011,2 hPa 0,0 l/m 11,0 km/h (2 Bft) W-SW 256 0 min 0,000 mm 0,0 UV-I 29 W/m 15,2 C 15,8 C 16,1 km/h (3 Bft) 100,00 %
05.08.2016 08:46 17,7 C 86 % 1011,2 hPa 0,0 l/m 9,8 km/h (2 Bft) W 264 0 min 0,000 mm 0,0 UV-I 26 W/m 15,3 C 16,2 C 16,1 km/h (3 Bft) 98,11 %
05.08.2016 08:48 17,7 C 86 % 1011,2 hPa 0,0 l/m 11,1 km/h (2 Bft) W-SW 248 0 min 0,000 mm 0,0 UV-I 26 W/m 15,3 C 15,7 C 14,5 km/h (3 Bft) 100,00 %
05.08.2016 08:50 17,6 C 87 % 1011,2 hPa 0,0 l/m 13,5 km/h (3 Bft) W-SW 254 0 min 0,000 mm 0,0 UV-I 26 W/m 15,4 C 14,8 C 20,9 km/h (4 Bft) 100,00 %
05.08.2016 08:52 17,6 C 87 % 1011,3 hPa 0,0 l/m 9,5 km/h (2 Bft) W-SW 248 0 min 0,000 mm 0,0 UV-I 28 W/m 15,4 C 16,2 C 17,7 km/h (3 Bft) 100,00 %
05.08.2016 08:54 17,4 C 87 % 1011,3 hPa 0,0 l/m 12,7 km/h (3 Bft) W-SW 254 0 min 0,000 mm 0,0 UV-I 28 W/m 15,2 C 14,8 C 17,7 km/h (3 Bft) 100,00 %
05.08.2016 08:56 17,4 C 88 % 1011,5 hPa 0,0 l/m 13,0 km/h (3 Bft) W 262 0 min 0,000 mm 0,0 UV-I 30 W/m 15,4 C 14,7 C 22,5 km/h (4 Bft) 100,00 %
05.08.2016 08:58 17,3 C 89 % 1011,5 hPa 0,0 l/m 13,2 km/h (3 Bft) W-SW 255 0 min 0,000 mm 0,0 UV-I 32 W/m 15,5 C 14,5 C 17,7 km/h (3 Bft) 100,00 %
05.08.2016 09:00 17,2 C 89 % 1011,5 hPa 0,0 l/m 12,3 km/h (3 Bft) SW 227 0 min 0,000 mm 0,0 UV-I 33 W/m 15,4 C 14,7 C 19,3 km/h (3 Bft) 100,00 %
05.08.2016 09:02 17,1 C 90 % 1011,5 hPa 0,0 l/m 12,3 km/h (3 Bft) W-SW 254 0 min 0,051 mm 0,0 UV-I 34 W/m 15,4 C 14,6 C 20,9 km/h (4 Bft) 100,00 %
05.08.2016 09:04 17,1 C 90 % 1011,5 hPa 0,0 l/m 12,8 km/h (3 Bft) W-SW 245 0 min 0,000 mm 0,0 UV-I 35 W/m 15,4 C 14,4 C 17,7 km/h (3 Bft) 100,00 %
05.08.2016 09:06 17,0 C 91 % 1011,5 hPa 0,0 l/m 10,7 km/h (2 Bft) W-SW 244 0 min 0,000 mm 0,0 UV-I 35 W/m 15,5 C 15,1 C 19,3 km/h (3 Bft) 100,00 %
05.08.2016 09:08 16,9 C 91 % 1011,6 hPa 0,0 l/m 7,2 km/h (2 Bft) W 267 0 min 0,000 mm 0,0 UV-I 33 W/m 15,4 C 16,5 C 12,9 km/h (3 Bft) 100,00 %
05.08.2016 09:10 16,9 C 92 % 1011,6 hPa 0,0 l/m 8,5 km/h (2 Bft) S-SW 213 0 min 0,000 mm 0,0 UV-I 33 W/m 15,6 C 15,9 C 12,9 km/h (3 Bft) 100,00 %
05.08.2016 09:12 16,9 C 92 % 1011,6 hPa 0,0 l/m 6,0 km/h (2 Bft) W 261 0 min 0,000 mm 0,0 UV-I 34 W/m 15,6 C 16,9 C 11,3 km/h (2 Bft) 100,00 %
05.08.2016 09:14 16,8 C 93 % 1011,6 hPa 0,0 l/m 7,7 km/h (2 Bft) W-SW 244 0 min 0,000 mm 0,0 UV-I 36 W/m 15,7 C 16,1 C 14,5 km/h (3 Bft) 100,00 %
05.08.2016 09:16 16,8 C 93 % 1011,5 hPa 0,2 l/m 6,0 km/h (2 Bft) W 264 0 min 0,000 mm 0,0 UV-I 40 W/m 15,7 C 16,8 C 9,7 km/h (2 Bft) 100,00 %
05.08.2016 09:18 16,8 C 93 % 1011,5 hPa 0,0 l/m 10,2 km/h (2 Bft) W-SW 252 0 min 0,000 mm 0,0 UV-I 42 W/m 15,7 C 15,0 C 17,7 km/h (3 Bft) 94,74 %
05.08.2016 09:20 16,8 C 93 % 1011,6 hPa 0,0 l/m 8,6 km/h (2 Bft) SW 233 0 min 0,000 mm 0,0 UV-I 46 W/m 15,7 C 15,7 C 14,5 km/h (3 Bft) 100,00 %
05.08.2016 09:22 16,8 C 94 % 1011,7 hPa 0,0 l/m 7,4 km/h (2 Bft) SW 215 0 min 0,000 mm 0,0 UV-I 49 W/m 15,8 C 16,3 C 14,5 km/h (3 Bft) 100,00 %
05.08.2016 09:24 16,7 C 94 % 1011,8 hPa 0,2 l/m 8,8 km/h (2 Bft) W-SW 242 0 min 0,000 mm 0,0 UV-I 50 W/m 15,7 C 15,5 C 12,9 km/h (3 Bft) 100,00 %
05.08.2016 09:26 16,7 C 94 % 1011,9 hPa 0,0 l/m 8,8 km/h (2 Bft) W 271 0 min 0,000 mm 0,0 UV-I 55 W/m 15,7 C 15,5 C 16,1 km/h (3 Bft) 100,00 %
05.08.2016 09:28 16,6 C 94 % 1011,9 hPa 0,0 l/m 7,6 km/h (2 Bft) SW 217 0 min 0,000 mm 0,0 UV-I 61 W/m 15,6 C 16,0 C 11,3 km/h (2 Bft) 97,56 %
05.08.2016 09:30 16,6 C 94 % 1011,9 hPa 0,0 l/m 7,1 km/h (2 Bft) SW 220 0 min 0,000 mm 0,0 UV-I 69 W/m 15,6 C 16,2 C 9,7 km/h (2 Bft) 98,11 %
05.08.2016 09:32 16,6 C 94 % 1011,9 hPa 0,0 l/m 7,7 km/h (2 Bft) W-SW 256 0 min 0,000 mm 0,0 UV-I 73 W/m 15,6 C 15,9 C 12,9 km/h (3 Bft) 97,56 %
05.08.2016 09:34 16,6 C 94 % 1011,9 hPa 0,2 l/m 7,8 km/h (2 Bft) S-SW 196 0 min 0,000 mm 0,0 UV-I 71 W/m 15,6 C 15,9 C 11,3 km/h (2 Bft) 100,00 %
05.08.2016 09:36 16,6 C 94 % 1011,8 hPa 0,0 l/m 5,3 km/h (1 Bft) W-SW 249 0 min 0,000 mm 0,0 UV-I 66 W/m 15,6 C 16,6 C 12,9 km/h (3 Bft) 97,37 %
05.08.2016 09:38 16,6 C 94 % 1011,8 hPa 0,0 l/m 6,7 km/h (2 Bft) W 259 0 min 0,000 mm 0,0 UV-I 67 W/m 15,6 C 16,5 C 11,3 km/h (2 Bft) 100,00 %
05.08.2016 09:40 16,6 C 94 % 1011,6 hPa 0,0 l/m 7,7 km/h (2 Bft) W-SW 252 0 min 0,000 mm 0,3 UV-I 74 W/m 15,6 C 15,9 C 11,3 km/h (2 Bft) 100,00 %
05.08.2016 09:42 16,6 C 94 % 1011,5 hPa 0,0 l/m 4,9 km/h (1 Bft) W-SW 258 0 min 0,000 mm 0,5 UV-I 82 W/m 15,6 C 16,6 C 6,4 km/h (2 Bft) 97,50 %
05.08.2016 09:44 16,6 C 95 % 1011,5 hPa 0,0 l/m 6,1 km/h (2 Bft) W-SW 252 0 min 0,000 mm 0,6 UV-I 91 W/m 15,8 C 16,6 C 8,0 km/h (2 Bft) 98,08 %
05.08.2016 09:46 16,7 C 95 % 1011,5 hPa 0,2 l/m 5,0 km/h (1 Bft) W-SW 252 0 min 0,000 mm 0,7 UV-I 101 W/m 15,9 C 16,7 C 8,0 km/h (2 Bft) 100,00 %
05.08.2016 09:48 16,7 C 95 % 1011,6 hPa 0,0 l/m 5,7 km/h (1 Bft) W 262 0 min 0,000 mm 0,8 UV-I 108 W/m 15,9 C 16,7 C 9,7 km/h (2 Bft) 100,00 %
05.08.2016 09:50 16,7 C 95 % 1011,6 hPa 0,0 l/m 4,7 km/h (1 Bft) W-SW 242 0 min 0,000 mm 0,7 UV-I 106 W/m 15,9 C 16,7 C 8,0 km/h (2 Bft) 100,00 %
05.08.2016 09:52 16,7 C 95 % 1011,6 hPa 0,2 l/m 4,2 km/h (1 Bft) W-SW 258 0 min 0,000 mm 0,6 UV-I 89 W/m 15,9 C 16,7 C 6,4 km/h (2 Bft) 97,87 %
05.08.2016 09:54 16,8 C 95 % 1011,6 hPa 0,0 l/m 4,6 km/h (1 Bft) W-SW 248 0 min 0,000 mm 0,6 UV-I 94 W/m 16,0 C 16,8 C 9,7 km/h (2 Bft) 100,00 %
05.08.2016 09:56 16,8 C 95 % 1011,7 hPa 0,0 l/m 3,4 km/h (1 Bft) W 269 0 min 0,000 mm 0,6 UV-I 90 W/m 16,0 C 16,8 C 4,8 km/h (1 Bft) 100,00 %
05.08.2016 09:58 16,8 C 95 % 1011,8 hPa 0,0 l/m 7,0 km/h (2 Bft) SW 226 0 min 0,000 mm 0,2 UV-I 67 W/m 16,0 C 16,5 C 11,3 km/h (2 Bft) 98,00 %
05.08.2016 10:00 16,8 C 95 % 1011,8 hPa 0,0 l/m 5,9 km/h (2 Bft) SW 235 0 min 0,051 mm 0,0 UV-I 47 W/m 16,0 C 16,8 C 11,3 km/h (2 Bft) 100,00 %
05.08.2016 10:02 16,7 C 95 % 1011,7 hPa 0,0 l/m 6,7 km/h (2 Bft) W 281 0 min 0,000 mm 0,0 UV-I 51 W/m 15,9 C 16,6 C 12,9 km/h (3 Bft) 100,00 %
05.08.2016 10:04 16,7 C 95 % 1011,8 hPa 0,0 l/m 5,2 km/h (1 Bft) SW 230 0 min 0,000 mm 0,3 UV-I 67 W/m 15,9 C 16,7 C 9,7 km/h (2 Bft) 100,00 %
05.08.2016 10:06 16,7 C 95 % 1011,7 hPa 0,0 l/m 6,4 km/h (2 Bft) SW 223 0 min 0,000 mm 0,4 UV-I 71 W/m 15,9 C 16,7 C 9,7 km/h (2 Bft) 97,87 %
05.08.2016 10:08 16,7 C 95 % 1011,8 hPa 0,0 l/m 5,2 km/h (1 Bft) W-SW 252 0 min 0,000 mm 0,2 UV-I 68 W/m 15,9 C 16,7 C 8,0 km/h (2 Bft) 97,87 %
05.08.2016 10:10 16,7 C 95 % 1011,7 hPa 0,0 l/m 5,4 km/h (1 Bft) W-SW 244 0 min 0,000 mm 0,5 UV-I 81 W/m 15,9 C 16,7 C 9,7 km/h (2 Bft) 97,37 %
05.08.2016 10:12 16,8 C 95 % 1011,7 hPa 0,0 l/m 5,7 km/h (1 Bft) SW 227 0 min 0,000 mm 0,6 UV-I 95 W/m 16,0 C 16,8 C 8,0 km/h (2 Bft) 98,21 %
05.08.2016 10:14 16,8 C 95 % 1011,7 hPa 0,0 l/m 5,1 km/h (1 Bft) SW 231 0 min 0,000 mm 0,8 UV-I 102 W/m 16,0 C 16,8 C 8,0 km/h (2 Bft) 94,74 %
05.08.2016 10:16 16,8 C 95 % 1011,7 hPa 0,0 l/m 6,2 km/h (2 Bft) S-SW 211 0 min 0,000 mm 0,7 UV-I 101 W/m 16,0 C 16,8 C 9,7 km/h (2 Bft) 97,78 %
05.08.2016 10:18 16,8 C 95 % 1011,8 hPa 0,0 l/m 8,4 km/h (2 Bft) W-SW 250 0 min 0,000 mm 0,6 UV-I 91 W/m 16,0 C 15,8 C 12,9 km/h (3 Bft) 96,15 %
05.08.2016 10:20 16,8 C 95 % 1011,8 hPa 0,0 l/m 6,6 km/h (2 Bft) W-SW 254 0 min 0,000 mm 0,5 UV-I 72 W/m 16,0 C 16,7 C 11,3 km/h (2 Bft) 98,00 %
05.08.2016 10:22 16,9 C 95 % 1011,8 hPa 0,0 l/m 5,2 km/h (1 Bft) W-SW 245 0 min 0,000 mm 0,5 UV-I 70 W/m 16,1 C 16,9 C 9,7 km/h (2 Bft) 98,00 %
05.08.2016 10:24 16,9 C 95 % 1011,8 hPa 0,0 l/m 5,3 km/h (1 Bft) W-SW 249 0 min 0,000 mm 0,5 UV-I 75 W/m 16,1 C 16,9 C 8,0 km/h (2 Bft) 97,44 %
05.08.2016 10:26 16,9 C 95 % 1011,8 hPa 0,2 l/m 4,5 km/h (1 Bft) SW 216 0 min 0,000 mm 0,5 UV-I 68 W/m 16,1 C 16,9 C 9,7 km/h (2 Bft) 98,00 %
05.08.2016 10:28 16,9 C 95 % 1011,9 hPa 0,0 l/m 4,8 km/h (1 Bft) W-SW 244 0 min 0,000 mm 0,0 UV-I 59 W/m 16,1 C 16,9 C 6,4 km/h (2 Bft) 97,87 %
05.08.2016 10:30 16,9 C 95 % 1011,9 hPa 0,0 l/m 4,9 km/h (1 Bft) W-NW 288 0 min 0,000 mm 0,0 UV-I 58 W/m 16,1 C 16,9 C 11,3 km/h (2 Bft) 97,87 %
05.08.2016 10:32 16,8 C 95 % 1011,9 hPa 0,0 l/m 5,2 km/h (1 Bft) W-SW 239 0 min 0,000 mm 0,0 UV-I 53 W/m 16,0 C 16,8 C 8,0 km/h (2 Bft) 94,34 %
05.08.2016 10:34 16,8 C 95 % 1011,9 hPa 0,0 l/m 4,4 km/h (1 Bft) W 259 0 min 0,000 mm 0,0 UV-I 51 W/m 16,0 C 16,8 C 9,7 km/h (2 Bft) 95,74 %
05.08.2016 10:36 16,8 C 95 % 1011,9 hPa 0,0 l/m 4,2 km/h (1 Bft) W 266 0 min 0,000 mm 0,0 UV-I 57 W/m 16,0 C 16,8 C 6,4 km/h (2 Bft) 97,56 %
05.08.2016 10:38 16,8 C 95 % 1011,9 hPa 0,2 l/m 3,5 km/h (1 Bft) W 268 0 min 0,000 mm 0,0 UV-I 56 W/m 16,0 C 16,8 C 6,4 km/h (2 Bft) 98,11 %
05.08.2016 10:40 16,7 C 94 % 1011,8 hPa 0,0 l/m 3,5 km/h (1 Bft) W-SW 258 0 min 0,000 mm 0,0 UV-I 59 W/m 15,7 C 16,7 C 6,4 km/h (2 Bft) 97,14 %
05.08.2016 10:42 16,7 C 94 % 1011,7 hPa 0,0 l/m 4,5 km/h (1 Bft) W 271 0 min 0,000 mm 0,4 UV-I 74 W/m 15,7 C 16,7 C 9,7 km/h (2 Bft) 100,00 %
05.08.2016 10:44 16,6 C 94 % 1011,7 hPa 0,0 l/m 3,9 km/h (1 Bft) W 261 0 min 0,000 mm 0,8 UV-I 108 W/m 15,6 C 16,6 C 6,4 km/h (2 Bft) 98,46 %
05.08.2016 10:46 16,7 C 95 % 1011,7 hPa 0,0 l/m 5,1 km/h (1 Bft) W-SW 244 0 min 0,000 mm 1,0 UV-I 133 W/m 15,9 C 16,7 C 6,4 km/h (2 Bft) 100,00 %
05.08.2016 10:48 16,7 C 95 % 1011,7 hPa 0,2 l/m 4,8 km/h (1 Bft) W-SW 248 0 min 0,000 mm 0,9 UV-I 120 W/m 15,9 C 16,7 C 9,7 km/h (2 Bft) 100,00 %
05.08.2016 10:50 16,7 C 95 % 1011,8 hPa 0,0 l/m 4,1 km/h (1 Bft) W 281 0 min 0,000 mm 0,6 UV-I 84 W/m 15,9 C 16,7 C 9,7 km/h (2 Bft) 100,00 %
05.08.2016 10:52 16,7 C 95 % 1011,8 hPa 0,0 l/m 3,5 km/h (1 Bft) W-SW 257 0 min 0,000 mm 0,5 UV-I 70 W/m 15,9 C 16,7 C 6,4 km/h (2 Bft) 97,37 %
05.08.2016 10:54 16,6 C 95 % 1011,8 hPa 0,0 l/m 4,9 km/h (1 Bft) W-SW 244 0 min 0,000 mm 0,1 UV-I 61 W/m 15,8 C 16,6 C 9,7 km/h (2 Bft) 100,00 %
05.08.2016 10:56 16,6 C 95 % 1011,9 hPa 0,0 l/m 6,4 km/h (2 Bft) W-SW 244 0 min 0,000 mm 0,0 UV-I 50 W/m 15,8 C 16,6 C 9,7 km/h (2 Bft) 100,00 %
05.08.2016 10:58 16,6 C 95 % 1011,9 hPa 0,0 l/m 6,5 km/h (2 Bft) W-SW 250 0 min 0,000 mm 0,0 UV-I 46 W/m 15,8 C 16,6 C 9,7 km/h (2 Bft) 100,00 %
05.08.2016 11:00 16,5 C 95 % 1012,0 hPa 0,0 l/m 6,0 km/h (2 Bft) W-SW 257 0 min 0,000 mm 0,0 UV-I 42 W/m 15,7 C 16,5 C 9,7 km/h (2 Bft) 100,00 %
05.08.2016 11:02 16,6 C 95 % 1012,1 hPa 0,0 l/m 6,4 km/h (2 Bft) W-SW 243 0 min 0,051 mm 0,0 UV-I 40 W/m 15,8 C 16,6 C 14,5 km/h (3 Bft) 100,00 %
05.08.2016 11:04 16,6 C 95 % 1012,2 hPa 0,0 l/m 7,1 km/h (2 Bft) W-NW 288 0 min 0,000 mm 0,0 UV-I 40 W/m 15,8 C 16,2 C 11,3 km/h (2 Bft) 98,00 %
05.08.2016 11:06 16,5 C 94 % 1012,3 hPa 0,0 l/m 6,0 km/h (2 Bft) W-SW 238 0 min 0,000 mm 0,0 UV-I 39 W/m 15,5 C 16,5 C 11,3 km/h (2 Bft) 100,00 %
05.08.2016 11:08 16,5 C 94 % 1012,3 hPa 0,0 l/m 6,4 km/h (2 Bft) W-SW 257 0 min 0,000 mm 0,0 UV-I 40 W/m 15,5 C 16,5 C 9,7 km/h (2 Bft) 97,87 %
05.08.2016 11:10 16,6 C 95 % 1012,3 hPa 0,0 l/m 4,9 km/h (1 Bft) SW 233 0 min 0,000 mm 0,0 UV-I 48 W/m 15,8 C 16,6 C 9,7 km/h (2 Bft) 100,00 %
05.08.2016 11:12 16,5 C 95 % 1012,3 hPa 0,2 l/m 6,5 km/h (2 Bft) W-SW 246 0 min 0,000 mm 0,2 UV-I 59 W/m 15,7 C 16,5 C 12,9 km/h (3 Bft) 100,00 %
05.08.2016 11:14 16,6 C 95 % 1012,3 hPa 0,0 l/m 5,1 km/h (1 Bft) S-SW 200 0 min 0,000 mm 0,6 UV-I 76 W/m 15,8 C 16,6 C 8,0 km/h (2 Bft) 97,37 %
05.08.2016 11:16 16,5 C 95 % 1012,3 hPa 0,0 l/m 5,6 km/h (1 Bft) W-SW 243 0 min 0,000 mm 0,6 UV-I 79 W/m 15,7 C 16,5 C 11,3 km/h (2 Bft) 100,00 %
05.08.2016 11:18 16,5 C 95 % 1012,3 hPa 0,2 l/m 7,5 km/h (2 Bft) W 274 0 min 0,000 mm 0,7 UV-I 92 W/m 15,7 C 15,9 C 11,3 km/h (2 Bft) 100,00 %
05.08.2016 11:20 16,6 C 95 % 1012,3 hPa 0,0 l/m 4,9 km/h (1 Bft) W 263 0 min 0,000 mm 0,8 UV-I 102 W/m 15,8 C 16,6 C 6,4 km/h (2 Bft) 97,87 %
05.08.2016 11:22 16,6 C 95 % 1012,3 hPa 0,2 l/m 4,2 km/h (1 Bft) W-SW 242 0 min 0,000 mm 0,7 UV-I 91 W/m 15,8 C 16,6 C 6,4 km/h (2 Bft) 97,37 %
05.08.2016 11:24 16,6 C 95 % 1012,3 hPa 0,0 l/m 5,9 km/h (2 Bft) W 259 0 min 0,000 mm 0,6 UV-I 78 W/m 15,8 C 16,6 C 9,7 km/h (2 Bft) 100,00 %
05.08.2016 11:26 16,6 C 95 % 1012,4 hPa 0,2 l/m 4,5 km/h (1 Bft) W 271 0 min 0,000 mm 0,6 UV-I 73 W/m 15,8 C 16,6 C 11,3 km/h (2 Bft) 100,00 %
05.08.2016 11:28 16,6 C 95 % 1012,3 hPa 0,0 l/m 4,1 km/h (1 Bft) W 275 0 min 0,000 mm 0,6 UV-I 80 W/m 15,8 C 16,6 C 6,4 km/h (2 Bft) 100,00 %
05.08.2016 11:30 16,6 C 95 % 1012,4 hPa 0,0 l/m 5,9 km/h (2 Bft) W 266 0 min 0,000 mm 0,7 UV-I 84 W/m 15,8 C 16,6 C 11,3 km/h (2 Bft) 100,00 %
05.08.2016 11:32 16,6 C 95 % 1012,4 hPa 0,2 l/m 9,0 km/h (2 Bft) W 262 0 min 0,000 mm 0,6 UV-I 78 W/m 15,8 C 15,3 C 12,9 km/h (3 Bft) 100,00 %
05.08.2016 11:34 16,6 C 95 % 1012,5 hPa 0,0 l/m 7,4 km/h (2 Bft) SW 224 0 min 0,000 mm 0,6 UV-I 77 W/m 15,8 C 16,1 C 11,3 km/h (2 Bft) 100,00 %
05.08.2016 11:36 16,6 C 95 % 1012,4 hPa 0,0 l/m 9,5 km/h (2 Bft) W-SW 256 0 min 0,000 mm 0,7 UV-I 89 W/m 15,8 C 15,1 C 12,9 km/h (3 Bft) 97,44 %
05.08.2016 11:38 16,6 C 95 % 1012,5 hPa 0,0 l/m 5,4 km/h (1 Bft) W-SW 242 0 min 0,000 mm 0,8 UV-I 102 W/m 15,8 C 16,6 C 11,3 km/h (2 Bft) 100,00 %
05.08.2016 11:40 16,7 C 96 % 1012,5 hPa 0,0 l/m 4,6 km/h (1 Bft) W-SW 254 0 min 0,000 mm 0,8 UV-I 96 W/m 16,1 C 16,7 C 6,4 km/h (2 Bft) 100,00 %
05.08.2016 11:42 16,7 C 95 % 1012,6 hPa 0,0 l/m 5,0 km/h (1 Bft) SW 226 0 min 0,000 mm 0,6 UV-I 81 W/m 15,9 C 16,7 C 8,0 km/h (2 Bft) 100,00 %
05.08.2016 11:44 16,7 C 96 % 1012,7 hPa 0,0 l/m 5,5 km/h (1 Bft) SW 233 0 min 0,000 mm 0,6 UV-I 76 W/m 16,1 C 16,7 C 9,7 km/h (2 Bft) 100,00 %
05.08.2016 11:46 16,7 C 96 % 1012,7 hPa 0,0 l/m 8,6 km/h (2 Bft) W-SW 250 0 min 0,000 mm 0,6 UV-I 81 W/m 16,1 C 15,6 C 12,9 km/h (3 Bft) 100,00 %
05.08.2016 11:48 16,7 C 95 % 1012,7 hPa 0,0 l/m 8,1 km/h (2 Bft) W-SW 245 0 min 0,000 mm 0,7 UV-I 94 W/m 15,9 C 15,8 C 14,5 km/h (3 Bft) 100,00 %
05.08.2016 11:50 16,7 C 96 % 1012,5 hPa 0,0 l/m 8,3 km/h (2 Bft) SW 232 0 min 0,000 mm 0,9 UV-I 117 W/m 16,1 C 15,7 C 12,9 km/h (3 Bft) 96,00 %
05.08.2016 11:52 16,7 C 95 % 1012,5 hPa 0,0 l/m 9,4 km/h (2 Bft) SW 229 0 min 0,000 mm 1,2 UV-I 148 W/m 15,9 C 15,2 C 12,9 km/h (3 Bft) 100,00 %
05.08.2016 11:54 16,8 C 95 % 1012,5 hPa 0,0 l/m 5,8 km/h (2 Bft) W-SW 252 0 min 0,000 mm 1,2 UV-I 151 W/m 16,0 C 16,8 C 8,0 km/h (2 Bft) 98,21 %
05.08.2016 11:56 16,8 C 95 % 1012,6 hPa 0,2 l/m 7,5 km/h (2 Bft) W-SW 250 0 min 0,000 mm 0,9 UV-I 116 W/m 16,0 C 16,2 C 12,9 km/h (3 Bft) 100,00 %
05.08.2016 11:58 16,7 C 95 % 1012,6 hPa 0,0 l/m 6,9 km/h (2 Bft) W-SW 241 0 min 0,000 mm 0,7 UV-I 96 W/m 15,9 C 16,4 C 11,3 km/h (2 Bft) 100,00 %
05.08.2016 12:00 16,8 C 95 % 1012,7 hPa 0,0 l/m 6,9 km/h (2 Bft) SW 221 0 min 0,051 mm 0,7 UV-I 92 W/m 16,0 C 16,5 C 12,9 km/h (3 Bft) 97,73 %
05.08.2016 12:02 16,8 C 95 % 1012,8 hPa 0,0 l/m 10,3 km/h (2 Bft) W-SW 257 0 min 0,000 mm 0,7 UV-I 85 W/m 16,0 C 15,0 C 14,5 km/h (3 Bft) 100,00 %
05.08.2016 12:04 16,8 C 95 % 1012,9 hPa 0,0 l/m 7,0 km/h (2 Bft) W-SW 244 0 min 0,000 mm 0,6 UV-I 68 W/m 16,0 C 16,5 C 12,9 km/h (3 Bft) 98,11 %
05.08.2016 12:06 16,8 C 95 % 1012,9 hPa 0,0 l/m 7,4 km/h (2 Bft) W 277 0 min 0,000 mm 0,0 UV-I 48 W/m 16,0 C 16,3 C 11,3 km/h (2 Bft) 95,12 %
05.08.2016 12:08 16,8 C 95 % 1012,9 hPa 0,2 l/m 7,0 km/h (2 Bft) W-SW 246 0 min 0,000 mm 0,0 UV-I 40 W/m 16,0 C 16,5 C 12,9 km/h (3 Bft) 98,11 %
05.08.2016 12:10 16,7 C 95 % 1013,0 hPa 0,0 l/m 14,4 km/h (3 Bft) W-SW 247 0 min 0,000 mm 0,0 UV-I 39 W/m 15,9 C 13,4 C 17,7 km/h (3 Bft) 97,14 %
05.08.2016 12:12 16,7 C 95 % 1013,1 hPa 0,2 l/m 11,6 km/h (2 Bft) W-SW 250 0 min 0,000 mm 0,0 UV-I 36 W/m 15,9 C 14,4 C 16,1 km/h (3 Bft) 96,23 %
05.08.2016 12:14 16,6 C 95 % 1013,2 hPa 0,0 l/m 6,1 km/h (2 Bft) W-SW 241 0 min 0,000 mm 0,0 UV-I 32 W/m 15,8 C 16,6 C 11,3 km/h (2 Bft) 97,73 %
05.08.2016 12:16 16,6 C 95 % 1013,3 hPa 0,2 l/m 5,2 km/h (1 Bft) W 262 0 min 0,000 mm 0,0 UV-I 29 W/m 15,8 C 16,6 C 11,3 km/h (2 Bft) 97,87 %
05.08.2016 12:18 16,6 C 95 % 1013,4 hPa 0,0 l/m 5,6 km/h (1 Bft) W-SW 256 0 min 0,000 mm 0,0 UV-I 36 W/m 15,8 C 16,6 C 9,7 km/h (2 Bft) 95,83 %
05.08.2016 12:20 16,6 C 95 % 1013,3 hPa 0,0 l/m 9,7 km/h (2 Bft) W-SW 255 0 min 0,000 mm 0,1 UV-I 51 W/m 15,8 C 15,0 C 16,1 km/h (3 Bft) 97,87 %
05.08.2016 12:22 16,5 C 95 % 1013,3 hPa 0,0 l/m 5,4 km/h (1 Bft) W-NW 300 0 min 0,000 mm 0,7 UV-I 78 W/m 15,7 C 16,5 C 9,7 km/h (2 Bft) 96,23 %
05.08.2016 12:24 16,5 C 95 % 1013,3 hPa 0,0 l/m 4,5 km/h (1 Bft) W 263 0 min 0,000 mm 0,8 UV-I 86 W/m 15,7 C 16,5 C 11,3 km/h (2 Bft) 95,65 %
05.08.2016 12:26 16,4 C 95 % 1013,4 hPa 0,0 l/m 7,0 km/h (2 Bft) W 271 0 min 0,000 mm 0,8 UV-I 88 W/m 15,6 C 16,1 C 11,3 km/h (2 Bft) 98,53 %
05.08.2016 12:28 16,4 C 95 % 1013,4 hPa 0,0 l/m 7,8 km/h (2 Bft) W 261 0 min 0,000 mm 0,9 UV-I 108 W/m 15,6 C 15,7 C 12,9 km/h (3 Bft) 97,73 %
05.08.2016 12:30 16,4 C 95 % 1013,4 hPa 0,2 l/m 4,9 km/h (1 Bft) W 265 0 min 0,000 mm 1,2 UV-I 137 W/m 15,6 C 16,4 C 8,0 km/h (2 Bft) 97,87 %
05.08.2016 12:32 16,3 C 95 % 1013,3 hPa 0,0 l/m 4,7 km/h (1 Bft) NW 306 0 min 0,000 mm 1,2 UV-I 141 W/m 15,5 C 16,3 C 9,7 km/h (2 Bft) 95,74 %
05.08.2016 12:34 16,3 C 95 % 1013,4 hPa 0,0 l/m 6,0 km/h (2 Bft) SW 234 0 min 0,000 mm 1,1 UV-I 121 W/m 15,5 C 16,3 C 11,3 km/h (2 Bft) 96,00 %
05.08.2016 12:36 16,3 C 95 % 1013,4 hPa 0,0 l/m 5,2 km/h (1 Bft) W 259 0 min 0,000 mm 1,0 UV-I 116 W/m 15,5 C 16,3 C 11,3 km/h (2 Bft) 97,87 %
05.08.2016 12:38 16,3 C 95 % 1013,3 hPa 0,0 l/m 5,2 km/h (1 Bft) NW 316 0 min 0,000 mm 1,2 UV-I 141 W/m 15,5 C 16,3 C 9,7 km/h (2 Bft) 95,00 %
05.08.2016 12:40 16,3 C 95 % 1013,2 hPa 0,0 l/m 1,6 km/h (1 Bft) NW 305 0 min 0,000 mm 1,4 UV-I 170 W/m 15,5 C 16,3 C 3,2 km/h (1 Bft) 98,00 %
05.08.2016 12:42 16,3 C 95 % 1013,2 hPa 0,0 l/m 6,6 km/h (2 Bft) W-SW 253 0 min 0,000 mm 1,6 UV-I 186 W/m 15,5 C 16,2 C 12,9 km/h (3 Bft) 100,00 %
05.08.2016 12:44 16,2 C 95 % 1013,2 hPa 0,0 l/m 8,7 km/h (2 Bft) W-SW 256 0 min 0,000 mm 1,5 UV-I 180 W/m 15,4 C 15,0 C 12,9 km/h (3 Bft) 97,73 %
05.08.2016 12:46 16,2 C 95 % 1013,2 hPa 0,0 l/m 9,3 km/h (2 Bft) W 263 0 min 0,000 mm 1,5 UV-I 178 W/m 15,4 C 14,7 C 14,5 km/h (3 Bft) 100,00 %
05.08.2016 12:48 16,1 C 95 % 1013,1 hPa 0,0 l/m 5,6 km/h (1 Bft) S-SW 207 0 min 0,000 mm 1,4 UV-I 172 W/m 15,3 C 16,1 C 11,3 km/h (2 Bft) 100,00 %
05.08.2016 12:50 16,0 C 94 % 1013,1 hPa 0,0 l/m 7,5 km/h (2 Bft) W-SW 242 0 min 0,000 mm 1,4 UV-I 170 W/m 15,0 C 15,4 C 14,5 km/h (3 Bft) 100,00 %
05.08.2016 12:52 15,9 C 95 % 1013,1 hPa 0,0 l/m 9,1 km/h (2 Bft) W-SW 254 0 min 0,000 mm 1,5 UV-I 171 W/m 15,1 C 14,5 C 17,7 km/h (3 Bft) 100,00 %
05.08.2016 12:54 15,9 C 94 % 1013,1 hPa 0,0 l/m 7,7 km/h (2 Bft) W-SW 244 0 min 0,000 mm 1,3 UV-I 153 W/m 14,9 C 15,2 C 16,1 km/h (3 Bft) 100,00 %
05.08.2016 12:56 15,8 C 94 % 1013,1 hPa 0,0 l/m 8,0 km/h (2 Bft) W 262 0 min 0,000 mm 1,2 UV-I 142 W/m 14,8 C 14,9 C 16,1 km/h (3 Bft) 100,00 %
05.08.2016 12:58 15,8 C 94 % 1013,1 hPa 0,2 l/m 5,6 km/h (1 Bft) W-NW 290 0 min 0,000 mm 1,2 UV-I 150 W/m 14,8 C 15,8 C 11,3 km/h (2 Bft) 97,73 %
05.08.2016 13:00 15,7 C 94 % 1013,1 hPa 0,0 l/m 5,6 km/h (1 Bft) W 271 0 min 0,000 mm 1,3 UV-I 150 W/m 14,7 C 15,7 C 9,7 km/h (2 Bft) 100,00 %
05.08.2016 13:02 15,7 C 94 % 1013,2 hPa 0,0 l/m 9,0 km/h (2 Bft) W-SW 242 0 min 0,050 mm 1,1 UV-I 129 W/m 14,7 C 14,3 C 14,5 km/h (3 Bft) 100,00 %
05.08.2016 13:04 15,7 C 95 % 1013,4 hPa 0,0 l/m 10,5 km/h (2 Bft) W-SW 240 0 min 0,000 mm 0,8 UV-I 91 W/m 14,9 C 13,7 C 19,3 km/h (3 Bft) 100,00 %
05.08.2016 13:06 15,7 C 94 % 1013,5 hPa 0,0 l/m 9,2 km/h (2 Bft) W 268 0 min 0,000 mm 0,5 UV-I 69 W/m 14,7 C 14,3 C 14,5 km/h (3 Bft) 100,00 %
05.08.2016 13:08 15,7 C 94 % 1013,6 hPa 0,0 l/m 7,7 km/h (2 Bft) W 273 0 min 0,000 mm 0,5 UV-I 70 W/m 14,7 C 15,0 C 11,3 km/h (2 Bft) 100,00 %
05.08.2016 13:10 15,6 C 94 % 1013,6 hPa 0,0 l/m 8,5 km/h (2 Bft) W 265 0 min 0,000 mm 0,6 UV-I 79 W/m 14,6 C 14,5 C 14,5 km/h (3 Bft) 100,00 %
05.08.2016 13:12 15,7 C 95 % 1013,6 hPa 0,0 l/m 7,4 km/h (2 Bft) W-NW 301 0 min 0,000 mm 0,8 UV-I 92 W/m 14,9 C 15,2 C 14,5 km/h (3 Bft) 100,00 %
05.08.2016 13:14 15,7 C 95 % 1013,6 hPa 0,0 l/m 10,5 km/h (2 Bft) W 263 0 min 0,000 mm 0,9 UV-I 116 W/m 14,9 C 13,7 C 17,7 km/h (3 Bft) 100,00 %
05.08.2016 13:16 15,7 C 95 % 1013,5 hPa 0,0 l/m 7,1 km/h (2 Bft) SW 232 0 min 0,000 mm 1,1 UV-I 147 W/m 14,9 C 15,3 C 17,7 km/h (3 Bft) 100,00 %
05.08.2016 13:18 15,7 C 95 % 1013,5 hPa 0,2 l/m 12,3 km/h (3 Bft) W 267 0 min 0,000 mm 1,1 UV-I 144 W/m 14,9 C 13,0 C 17,7 km/h (3 Bft) 98,00 %
05.08.2016 13:20 15,7 C 95 % 1013,6 hPa 0,2 l/m 10,3 km/h (2 Bft) W-SW 257 0 min 0,000 mm 1,0 UV-I 123 W/m 14,9 C 13,8 C 19,3 km/h (3 Bft) 100,00 %
05.08.2016 13:22 15,7 C 95 % 1013,5 hPa 0,0 l/m 9,2 km/h (2 Bft) W-SW 242 0 min 0,000 mm 0,9 UV-I 112 W/m 14,9 C 14,3 C 12,9 km/h (3 Bft) 100,00 %
05.08.2016 13:24 15,7 C 95 % 1013,5 hPa 0,2 l/m 8,6 km/h (2 Bft) W-SW 256 0 min 0,000 mm 0,9 UV-I 114 W/m 14,9 C 14,5 C 12,9 km/h (3 Bft) 100,00 %
05.08.2016 13:26 15,6 C 94 % 1013,5 hPa 0,0 l/m 9,7 km/h (2 Bft) W 264 0 min 0,000 mm 0,9 UV-I 113 W/m 14,6 C 13,9 C 16,1 km/h (3 Bft) 100,00 %
05.08.2016 13:28 15,6 C 94 % 1013,6 hPa 0,0 l/m 9,2 km/h (2 Bft) NW 304 0 min 0,000 mm 0,8 UV-I 96 W/m 14,6 C 14,1 C 17,7 km/h (3 Bft) 100,00 %
05.08.2016 13:30 15,6 C 95 % 1013,7 hPa 0,0 l/m 7,6 km/h (2 Bft) W-SW 240 0 min 0,000 mm 0,6 UV-I 85 W/m 14,8 C 14,9 C 14,5 km/h (3 Bft) 100,00 %
05.08.2016 13:32 15,6 C 95 % 1013,7 hPa 0,0 l/m 9,4 km/h (2 Bft) W 271 0 min 0,000 mm 0,6 UV-I 80 W/m 14,8 C 14,1 C 17,7 km/h (3 Bft) 97,87 %
05.08.2016 13:34 15,6 C 94 % 1013,8 hPa 0,2 l/m 8,8 km/h (2 Bft) SW 232 0 min 0,000 mm 0,6 UV-I 77 W/m 14,6 C 14,3 C 19,3 km/h (3 Bft) 100,00 %
05.08.2016 13:36 15,6 C 94 % 1013,8 hPa 0,0 l/m 13,2 km/h (3 Bft) W 264 0 min 0,000 mm 0,6 UV-I 79 W/m 14,6 C 12,5 C 20,9 km/h (4 Bft) 100,00 %
05.08.2016 13:38 15,6 C 94 % 1013,8 hPa 0,0 l/m 8,7 km/h (2 Bft) W-SW 238 0 min 0,000 mm 0,6 UV-I 83 W/m 14,6 C 14,4 C 17,7 km/h (3 Bft) 100,00 %
05.08.2016 13:40 15,6 C 94 % 1013,8 hPa 0,0 l/m 8,3 km/h (2 Bft) W 264 0 min 0,000 mm 0,6 UV-I 85 W/m 14,6 C 14,6 C 12,9 km/h (3 Bft) 100,00 %
05.08.2016 13:42 15,6 C 95 % 1013,8 hPa 0,2 l/m 7,3 km/h (2 Bft) W-SW 242 0 min 0,000 mm 0,6 UV-I 87 W/m 14,8 C 15,1 C 11,3 km/h (2 Bft) 100,00 %
05.08.2016 13:44 15,7 C 95 % 1014,0 hPa 0,0 l/m 7,2 km/h (2 Bft) W 276 0 min 0,000 mm 0,6 UV-I 85 W/m 14,9 C 15,3 C 11,3 km/h (2 Bft) 98,00 %
05.08.2016 13:46 15,7 C 95 % 1014,0 hPa 0,2 l/m 9,3 km/h (2 Bft) W 281 0 min 0,000 mm 0,6 UV-I 83 W/m 14,9 C 14,2 C 16,1 km/h (3 Bft) 100,00 %
05.08.2016 13:48 15,7 C 95 % 1014,0 hPa 0,0 l/m 6,1 km/h (2 Bft) W-SW 250 0 min 0,000 mm 0,6 UV-I 83 W/m 14,9 C 15,7 C 11,3 km/h (2 Bft) 98,00 %
05.08.2016 13:50 15,7 C 95 % 1014,1 hPa 0,2 l/m 9,0 km/h (2 Bft) W-SW 250 0 min 0,000 mm 0,6 UV-I 79 W/m 14,9 C 14,3 C 14,5 km/h (3 Bft) 98,00 %
05.08.2016 13:52 15,7 C 95 % 1014,1 hPa 0,0 l/m 11,3 km/h (2 Bft) W 277 0 min 0,000 mm 0,6 UV-I 76 W/m 14,9 C 13,3 C 14,5 km/h (3 Bft) 100,00 %
05.08.2016 13:54 15,7 C 95 % 1014,0 hPa 0,2 l/m 10,8 km/h (2 Bft) SW 229 0 min 0,000 mm 0,6 UV-I 75 W/m 14,9 C 13,6 C 17,7 km/h (3 Bft) 96,23 %
05.08.2016 13:56 15,7 C 95 % 1014,1 hPa 0,2 l/m 9,9 km/h (2 Bft) W-SW 255 0 min 0,000 mm 0,6 UV-I 81 W/m 14,9 C 13,9 C 16,1 km/h (3 Bft) 100,00 %
05.08.2016 13:58 15,7 C 95 % 1014,1 hPa 0,0 l/m 10,9 km/h (2 Bft) W-SW 249 0 min 0,000 mm 0,6 UV-I 88 W/m 14,9 C 13,5 C 17,7 km/h (3 Bft) 98,21 %
05.08.2016 14:00 15,7 C 95 % 1014,2 hPa 0,2 l/m 12,0 km/h (2 Bft) W-SW 241 0 min 0,000 mm 0,7 UV-I 96 W/m 14,9 C 13,1 C 14,5 km/h (3 Bft) 100,00 %
05.08.2016 14:02 15,7 C 95 % 1014,1 hPa 0,0 l/m 9,2 km/h (2 Bft) W-NW 284 0 min 0,051 mm 0,7 UV-I 100 W/m 14,9 C 14,3 C 16,1 km/h (3 Bft) 100,00 %
05.08.2016 14:04 15,7 C 95 % 1014,1 hPa 0,2 l/m 9,3 km/h (2 Bft) W-SW 237 0 min 0,000 mm 0,8 UV-I 104 W/m 14,9 C 14,2 C 17,7 km/h (3 Bft) 97,37 %
05.08.2016 14:06 15,7 C 95 % 1014,1 hPa 0,2 l/m 10,0 km/h (2 Bft) W-SW 250 0 min 0,000 mm 0,8 UV-I 107 W/m 14,9 C 13,9 C 17,7 km/h (3 Bft) 95,83 %
05.08.2016 14:08 15,7 C 95 % 1014,1 hPa 0,0 l/m 10,3 km/h (2 Bft) W-SW 246 0 min 0,000 mm 0,8 UV-I 114 W/m 14,9 C 13,8 C 17,7 km/h (3 Bft) 97,73 %
05.08.2016 14:10 15,7 C 95 % 1014,1 hPa 0,0 l/m 7,8 km/h (2 Bft) W-SW 254 0 min 0,000 mm 0,9 UV-I 118 W/m 14,9 C 14,9 C 12,9 km/h (3 Bft) 96,23 %
05.08.2016 14:12 15,7 C 96 % 1014,1 hPa 0,2 l/m 11,1 km/h (2 Bft) W 259 0 min 0,000 mm 0,9 UV-I 115 W/m 15,1 C 13,4 C 16,1 km/h (3 Bft) 97,56 %
05.08.2016 14:14 15,8 C 96 % 1014,1 hPa 0,0 l/m 11,2 km/h (2 Bft) W 272 0 min 0,000 mm 0,8 UV-I 113 W/m 15,2 C 13,5 C 16,1 km/h (3 Bft) 95,83 %
05.08.2016 14:16 15,8 C 96 % 1014,2 hPa 0,2 l/m 7,8 km/h (2 Bft) W-SW 249 0 min 0,000 mm 0,8 UV-I 108 W/m 15,2 C 15,0 C 12,9 km/h (3 Bft) 98,00 %
05.08.2016 14:18 15,8 C 96 % 1014,3 hPa 0,0 l/m 10,5 km/h (2 Bft) W-SW 246 0 min 0,000 mm 0,8 UV-I 101 W/m 15,2 C 13,8 C 16,1 km/h (3 Bft) 96,15 %
05.08.2016 14:20 15,7 C 95 % 1014,4 hPa 0,0 l/m 12,4 km/h (3 Bft) W-SW 244 0 min 0,000 mm 0,7 UV-I 95 W/m 14,9 C 12,9 C 17,7 km/h (3 Bft) 97,44 %
05.08.2016 14:22 15,7 C 95 % 1014,4 hPa 0,2 l/m 11,9 km/h (2 Bft) W-SW 250 0 min 0,000 mm 0,7 UV-I 89 W/m 14,9 C 13,1 C 17,7 km/h (3 Bft) 95,45 %
05.08.2016 14:24 15,8 C 96 % 1014,5 hPa 0,0 l/m 9,7 km/h (2 Bft) W-SW 239 0 min 0,000 mm 0,6 UV-I 85 W/m 15,2 C 14,1 C 16,1 km/h (3 Bft) 98,21 %
05.08.2016 14:26 15,8 C 96 % 1014,6 hPa 0,2 l/m 8,4 km/h (2 Bft) SW 234 0 min 0,000 mm 0,6 UV-I 85 W/m 15,2 C 14,7 C 14,5 km/h (3 Bft) 92,31 %
05.08.2016 14:28 15,8 C 96 % 1014,6 hPa 0,0 l/m 9,5 km/h (2 Bft) W 259 0 min 0,000 mm 0,6 UV-I 87 W/m 15,2 C 14,2 C 17,7 km/h (3 Bft) 98,46 %
05.08.2016 14:30 15,8 C 96 % 1014,7 hPa 0,0 l/m 13,9 km/h (3 Bft) W-SW 250 0 min 0,000 mm 0,6 UV-I 85 W/m 15,2 C 12,5 C 19,3 km/h (3 Bft) 98,11 %
05.08.2016 14:32 15,7 C 95 % 1014,7 hPa 0,2 l/m 13,1 km/h (3 Bft) SW 232 0 min 0,000 mm 0,6 UV-I 84 W/m 14,9 C 12,7 C 17,7 km/h (3 Bft) 95,12 %
05.08.2016 14:34 15,8 C 96 % 1014,7 hPa 0,2 l/m 11,4 km/h (2 Bft) SW 225 0 min 0,000 mm 0,6 UV-I 82 W/m 15,2 C 13,4 C 16,1 km/h (3 Bft) 97,73 %
05.08.2016 14:36 15,8 C 96 % 1014,7 hPa 0,0 l/m 12,2 km/h (2 Bft) W-SW 258 0 min 0,000 mm 0,6 UV-I 79 W/m 15,2 C 13,1 C 17,7 km/h (3 Bft) 96,00 %
05.08.2016 14:38 15,8 C 96 % 1014,7 hPa 0,2 l/m 11,9 km/h (2 Bft) W 266 0 min 0,000 mm 0,6 UV-I 81 W/m 15,2 C 13,2 C 17,7 km/h (3 Bft) 97,56 %
05.08.2016 14:40 15,8 C 96 % 1014,7 hPa 0,0 l/m 10,8 km/h (2 Bft) W 262 0 min 0,000 mm 0,5 UV-I 75 W/m 15,2 C 13,7 C 16,1 km/h (3 Bft) 100,00 %
05.08.2016 14:42 15,8 C 96 % 1014,7 hPa 0,2 l/m 13,3 km/h (3 Bft) W-SW 257 0 min 0,000 mm 0,5 UV-I 70 W/m 15,2 C 12,7 C 17,7 km/h (3 Bft) 100,00 %
05.08.2016 14:44 15,8 C 96 % 1014,6 hPa 0,0 l/m 9,9 km/h (2 Bft) W-SW 247 0 min 0,000 mm 0,5 UV-I 70 W/m 15,2 C 14,0 C 14,5 km/h (3 Bft) 100,00 %
05.08.2016 14:46 15,8 C 96 % 1014,7 hPa 0,2 l/m 12,1 km/h (2 Bft) W-SW 249 0 min 0,000 mm 0,5 UV-I 71 W/m 15,2 C 13,2 C 17,7 km/h (3 Bft) 100,00 %
05.08.2016 14:48 15,8 C 96 % 1014,7 hPa 0,0 l/m 10,7 km/h (2 Bft) W 259 0 min 0,000 mm 0,5 UV-I 73 W/m 15,2 C 13,7 C 14,5 km/h (3 Bft) 100,00 %
05.08.2016 14:50 15,8 C 96 % 1014,8 hPa 0,2 l/m 10,7 km/h (2 Bft) W 275 0 min 0,000 mm 0,5 UV-I 73 W/m 15,2 C 13,7 C 14,5 km/h (3 Bft) 100,00 %
05.08.2016 14:52 15,8 C 96 % 1014,8 hPa 0,0 l/m 9,5 km/h (2 Bft) W-SW 252 0 min 0,000 mm 0,5 UV-I 74 W/m 15,2 C 14,2 C 16,1 km/h (3 Bft) 100,00 %
05.08.2016 14:54 15,8 C 96 % 1015,0 hPa 0,2 l/m 10,8 km/h (2 Bft) SW 225 0 min 0,000 mm 0,5 UV-I 75 W/m 15,2 C 13,7 C 17,7 km/h (3 Bft) 100,00 %
05.08.2016 14:56 15,8 C 96 % 1014,9 hPa 0,0 l/m 12,2 km/h (2 Bft) W-SW 257 0 min 0,000 mm 0,5 UV-I 76 W/m 15,2 C 13,1 C 22,5 km/h (4 Bft) 100,00 %
05.08.2016 14:58 15,8 C 96 % 1015,0 hPa 0,2 l/m 10,0 km/h (2 Bft) W 280 0 min 0,000 mm 0,5 UV-I 74 W/m 15,2 C 14,0 C 14,5 km/h (3 Bft) 98,04 %
05.08.2016 15:00 15,8 C 96 % 1015,0 hPa 0,0 l/m 8,7 km/h (2 Bft) SW 229 0 min 0,000 mm 0,5 UV-I 75 W/m 15,2 C 14,6 C 16,1 km/h (3 Bft) 100,00 %
05.08.2016 15:02 15,8 C 96 % 1015,0 hPa 0,2 l/m 9,1 km/h (2 Bft) W-SW 238 0 min 0,051 mm 0,5 UV-I 71 W/m 15,2 C 14,4 C 14,5 km/h (3 Bft) 100,00 %
05.08.2016 15:04 15,7 C 96 % 1015,0 hPa 0,0 l/m 9,6 km/h (2 Bft) W-SW 240 0 min 0,000 mm 0,4 UV-I 67 W/m 15,1 C 14,1 C 16,1 km/h (3 Bft) 96,00 %
05.08.2016 15:06 15,7 C 96 % 1015,0 hPa 0,0 l/m 10,6 km/h (2 Bft) S-SW 213 0 min 0,000 mm 0,0 UV-I 63 W/m 15,1 C 13,6 C 14,5 km/h (3 Bft) 100,00 %
05.08.2016 15:08 15,7 C 96 % 1014,9 hPa 0,2 l/m 11,4 km/h (2 Bft) W-SW 250 0 min 0,000 mm 0,0 UV-I 62 W/m 15,1 C 13,3 C 19,3 km/h (3 Bft) 100,00 %
05.08.2016 15:10 15,7 C 96 % 1015,0 hPa 0,0 l/m 13,6 km/h (3 Bft) SW 225 0 min 0,000 mm 0,0 UV-I 63 W/m 15,1 C 12,5 C 20,9 km/h (4 Bft) 100,00 %
05.08.2016 15:12 15,7 C 96 % 1015,1 hPa 0,0 l/m 9,6 km/h (2 Bft) SW 215 0 min 0,000 mm 0,0 UV-I 65 W/m 15,1 C 14,1 C 14,5 km/h (3 Bft) 100,00 %
05.08.2016 15:14 15,7 C 96 % 1015,1 hPa 0,2 l/m 9,0 km/h (2 Bft) SW 227 0 min 0,000 mm 0,1 UV-I 67 W/m 15,1 C 14,3 C 12,9 km/h (3 Bft) 100,00 %
05.08.2016 15:16 15,7 C 95 % 1015,1 hPa 0,0 l/m 10,5 km/h (2 Bft) W-SW 252 0 min 0,000 mm 0,5 UV-I 69 W/m 14,9 C 13,7 C 17,7 km/h (3 Bft) 98,00 %
05.08.2016 15:18 15,8 C 96 % 1015,1 hPa 0,0 l/m 9,6 km/h (2 Bft) SW 233 0 min 0,000 mm 0,5 UV-I 69 W/m 15,2 C 14,2 C 16,1 km/h (3 Bft) 100,00 %
05.08.2016 15:20 15,8 C 96 % 1015,2 hPa 0,2 l/m 10,6 km/h (2 Bft) W-SW 252 0 min 0,000 mm 0,5 UV-I 69 W/m 15,2 C 13,7 C 14,5 km/h (3 Bft) 97,87 %
05.08.2016 15:22 15,7 C 96 % 1015,2 hPa 0,0 l/m 15,4 km/h (3 Bft) W-SW 246 0 min 0,000 mm 0,5 UV-I 69 W/m 15,1 C 11,9 C 22,5 km/h (4 Bft) 100,00 %
05.08.2016 15:24 15,7 C 96 % 1015,2 hPa 0,2 l/m 12,1 km/h (2 Bft) W 272 0 min 0,000 mm 0,5 UV-I 69 W/m 15,1 C 13,0 C 20,9 km/h (4 Bft) 97,37 %
05.08.2016 15:26 15,8 C 96 % 1015,3 hPa 0,0 l/m 9,2 km/h (2 Bft) W 264 0 min 0,000 mm 0,0 UV-I 67 W/m 15,2 C 14,4 C 14,5 km/h (3 Bft) 100,00 %
05.08.2016 15:28 15,8 C 96 % 1015,3 hPa 0,2 l/m 10,5 km/h (2 Bft) W-SW 246 0 min 0,000 mm 0,0 UV-I 68 W/m 15,2 C 13,8 C 17,7 km/h (3 Bft) 100,00 %
05.08.2016 15:30 15,8 C 96 % 1015,3 hPa 0,0 l/m 10,6 km/h (2 Bft) SW 218 0 min 0,000 mm 0,4 UV-I 71 W/m 15,2 C 13,7 C 17,7 km/h (3 Bft) 100,00 %
05.08.2016 15:32 15,7 C 96 % 1015,3 hPa 0,2 l/m 11,2 km/h (2 Bft) SW 215 0 min 0,000 mm 0,5 UV-I 77 W/m 15,1 C 13,4 C 19,3 km/h (3 Bft) 97,73 %
05.08.2016 15:34 15,8 C 96 % 1015,3 hPa 0,0 l/m 9,8 km/h (2 Bft) SW 232 0 min 0,000 mm 0,5 UV-I 84 W/m 15,2 C 14,1 C 16,1 km/h (3 Bft) 100,00 %
05.08.2016 15:36 15,8 C 96 % 1015,4 hPa 0,2 l/m 11,5 km/h (2 Bft) SW 222 0 min 0,000 mm 0,6 UV-I 90 W/m 15,2 C 13,4 C 17,7 km/h (3 Bft) 100,00 %
05.08.2016 15:38 15,8 C 96 % 1015,4 hPa 0,0 l/m 11,6 km/h (2 Bft) S-SW 206 0 min 0,000 mm 0,6 UV-I 95 W/m 15,2 C 13,3 C 16,1 km/h (3 Bft) 100,00 %
05.08.2016 15:40 15,8 C 96 % 1015,5 hPa 0,0 l/m 11,8 km/h (2 Bft) W-SW 257 0 min 0,000 mm 0,6 UV-I 97 W/m 15,2 C 13,3 C 16,1 km/h (3 Bft) 100,00 %
05.08.2016 15:42 15,8 C 96 % 1015,5 hPa 0,2 l/m 14,4 km/h (3 Bft) W-SW 238 0 min 0,000 mm 0,6 UV-I 94 W/m 15,2 C 12,4 C 22,5 km/h (4 Bft) 98,00 %
05.08.2016 15:44 15,8 C 96 % 1015,6 hPa 0,2 l/m 12,2 km/h (2 Bft) SW 224 0 min 0,000 mm 0,6 UV-I 91 W/m 15,2 C 13,1 C 19,3 km/h (3 Bft) 97,87 %
05.08.2016 15:46 15,8 C 96 % 1015,6 hPa 0,0 l/m 10,0 km/h (2 Bft) SW 224 0 min 0,000 mm 0,6 UV-I 91 W/m 15,2 C 14,0 C 14,5 km/h (3 Bft) 97,73 %
05.08.2016 15:48 15,8 C 96 % 1015,6 hPa 0,0 l/m 12,0 km/h (2 Bft) SW 218 0 min 0,000 mm 0,6 UV-I 90 W/m 15,2 C 13,2 C 17,7 km/h (3 Bft) 100,00 %
05.08.2016 15:50 15,8 C 96 % 1015,6 hPa 0,2 l/m 12,7 km/h (3 Bft) SW 235 0 min 0,000 mm 0,5 UV-I 89 W/m 15,2 C 12,9 C 17,7 km/h (3 Bft) 97,37 %
05.08.2016 15:52 15,8 C 95 % 1015,6 hPa 0,0 l/m 11,4 km/h (2 Bft) SW 223 0 min 0,000 mm 0,5 UV-I 87 W/m 15,0 C 13,4 C 16,1 km/h (3 Bft) 100,00 %
05.08.2016 15:54 15,7 C 95 % 1015,8 hPa 0,0 l/m 15,2 km/h (3 Bft) W-SW 246 0 min 0,000 mm 0,5 UV-I 86 W/m 14,9 C 12,0 C 24,1 km/h (4 Bft) 97,37 %
05.08.2016 15:56 15,7 C 95 % 1015,7 hPa 0,0 l/m 12,5 km/h (3 Bft) SW 225 0 min 0,000 mm 0,5 UV-I 84 W/m 14,9 C 12,9 C 20,9 km/h (4 Bft) 100,00 %
05.08.2016 15:58 15,8 C 96 % 1015,8 hPa 0,0 l/m 11,2 km/h (2 Bft) W-SW 239 0 min 0,000 mm 0,5 UV-I 85 W/m 15,2 C 13,5 C 17,7 km/h (3 Bft) 97,37 %
05.08.2016 16:00 15,8 C 96 % 1015,7 hPa 0,2 l/m 13,2 km/h (3 Bft) W-SW 240 0 min 0,000 mm 0,6 UV-I 87 W/m 15,2 C 12,8 C 22,5 km/h (4 Bft) 98,00 %
05.08.2016 16:02 15,8 C 96 % 1015,7 hPa 0,0 l/m 11,8 km/h (2 Bft) SW 218 0 min 0,051 mm 0,6 UV-I 90 W/m 15,2 C 13,3 C 19,3 km/h (3 Bft) 100,00 %
05.08.2016 16:04 15,8 C 96 % 1015,8 hPa 0,0 l/m 10,3 km/h (2 Bft) S 184 0 min 0,000 mm 0,6 UV-I 94 W/m 15,2 C 13,9 C 17,7 km/h (3 Bft) 94,00 %
05.08.2016 16:06 15,8 C 96 % 1015,8 hPa 0,0 l/m 12,1 km/h (2 Bft) S-SW 208 0 min 0,000 mm 0,6 UV-I 95 W/m 15,2 C 13,2 C 19,3 km/h (3 Bft) 98,11 %
05.08.2016 16:08 15,8 C 96 % 1015,9 hPa 0,0 l/m 15,4 km/h (3 Bft) SW 223 0 min 0,000 mm 0,6 UV-I 90 W/m 15,2 C 12,0 C 24,1 km/h (4 Bft) 100,00 %
05.08.2016 16:10 15,8 C 96 % 1015,9 hPa 0,2 l/m 12,1 km/h (2 Bft) S-SW 211 0 min 0,000 mm 0,5 UV-I 81 W/m 15,2 C 13,2 C 19,3 km/h (3 Bft) 95,77 %
05.08.2016 16:12 15,8 C 95 % 1015,9 hPa 0,0 l/m 13,2 km/h (3 Bft) W-SW 244 0 min 0,000 mm 0,3 UV-I 74 W/m 15,0 C 12,8 C 17,7 km/h (3 Bft) 97,96 %
05.08.2016 16:14 15,8 C 96 % 1015,9 hPa 0,0 l/m 11,2 km/h (2 Bft) W-SW 243 0 min 0,000 mm 0,5 UV-I 74 W/m 15,2 C 13,5 C 16,1 km/h (3 Bft) 96,00 %
05.08.2016 16:16 15,8 C 96 % 1015,9 hPa 0,2 l/m 10,4 km/h (2 Bft) SW 232 0 min 0,000 mm 0,3 UV-I 74 W/m 15,2 C 13,8 C 16,1 km/h (3 Bft) 97,92 %
05.08.2016 16:18 15,8 C 96 % 1015,9 hPa 0,0 l/m 12,5 km/h (3 Bft) W-SW 248 0 min 0,000 mm 0,0 UV-I 67 W/m 15,2 C 13,0 C 19,3 km/h (3 Bft) 97,37 %
05.08.2016 16:20 15,7 C 95 % 1015,9 hPa 0,0 l/m 13,2 km/h (3 Bft) SW 221 0 min 0,000 mm 0,0 UV-I 61 W/m 14,9 C 12,6 C 25,7 km/h (4 Bft) 96,23 %
05.08.2016 16:22 15,8 C 96 % 1015,9 hPa 0,2 l/m 11,7 km/h (2 Bft) W-SW 238 0 min 0,000 mm 0,0 UV-I 63 W/m 15,2 C 13,3 C 19,3 km/h (3 Bft) 97,56 %
05.08.2016 16:24 15,8 C 96 % 1015,9 hPa 0,0 l/m 10,3 km/h (2 Bft) SW 229 0 min 0,000 mm 0,0 UV-I 66 W/m 15,2 C 13,9 C 16,1 km/h (3 Bft) 98,11 %
05.08.2016 16:26 15,8 C 96 % 1015,9 hPa 0,2 l/m 10,4 km/h (2 Bft) W-SW 243 0 min 0,000 mm 0,0 UV-I 68 W/m 15,2 C 13,8 C 19,3 km/h (3 Bft) 98,00 %
05.08.2016 16:28 15,8 C 95 % 1015,9 hPa 0,0 l/m 11,3 km/h (2 Bft) SW 217 0 min 0,000 mm 0,0 UV-I 67 W/m 15,0 C 13,5 C 16,1 km/h (3 Bft) 95,74 %
05.08.2016 16:30 15,7 C 95 % 1015,9 hPa 0,0 l/m 10,2 km/h (2 Bft) SW 217 0 min 0,000 mm 0,0 UV-I 66 W/m 14,9 C 13,8 C 17,7 km/h (3 Bft) 97,14 %
05.08.2016 16:32 15,7 C 95 % 1015,9 hPa 0,2 l/m 12,9 km/h (3 Bft) SW 234 0 min 0,000 mm 0,0 UV-I 58 W/m 14,9 C 12,7 C 20,9 km/h (4 Bft) 98,31 %
05.08.2016 16:34 15,7 C 95 % 1015,9 hPa 0,0 l/m 8,7 km/h (2 Bft) W-SW 244 0 min 0,000 mm 0,0 UV-I 60 W/m 14,9 C 14,5 C 14,5 km/h (3 Bft) 97,73 %
05.08.2016 16:36 15,7 C 95 % 1016,1 hPa 0,2 l/m 12,2 km/h (2 Bft) W 264 0 min 0,000 mm 0,0 UV-I 64 W/m 14,9 C 13,0 C 19,3 km/h (3 Bft) 97,73 %
05.08.2016 16:38 15,7 C 95 % 1016,1 hPa 0,0 l/m 10,8 km/h (2 Bft) SW 231 0 min 0,000 mm 0,0 UV-I 68 W/m 14,9 C 13,6 C 19,3 km/h (3 Bft) 100,00 %
05.08.2016 16:40 15,7 C 95 % 1015,9 hPa 0,0 l/m 10,9 km/h (2 Bft) W-SW 238 0 min 0,000 mm 0,0 UV-I 69 W/m 14,9 C 13,5 C 16,1 km/h (3 Bft) 96,00 %
05.08.2016 16:42 15,7 C 95 % 1015,9 hPa 0,2 l/m 9,3 km/h (2 Bft) SW 215 0 min 0,000 mm 0,0 UV-I 69 W/m 14,9 C 14,2 C 14,5 km/h (3 Bft) 97,87 %
05.08.2016 16:44 15,7 C 96 % 1015,9 hPa 0,2 l/m 13,1 km/h (3 Bft) S-SW 207 0 min 0,000 mm 0,0 UV-I 74 W/m 15,1 C 12,7 C 17,7 km/h (3 Bft) 100,00 %
05.08.2016 16:46 15,7 C 96 % 1015,9 hPa 0,0 l/m 10,1 km/h (2 Bft) SW 220 0 min 0,000 mm 0,2 UV-I 83 W/m 15,1 C 13,8 C 14,5 km/h (3 Bft) 100,00 %
05.08.2016 16:48 15,7 C 96 % 1015,9 hPa 0,0 l/m 8,7 km/h (2 Bft) SW 233 0 min 0,000 mm 0,2 UV-I 84 W/m 15,1 C 14,5 C 14,5 km/h (3 Bft) 100,00 %
05.08.2016 16:50 15,7 C 96 % 1015,8 hPa 0,2 l/m 11,0 km/h (2 Bft) W-SW 247 0 min 0,000 mm 0,1 UV-I 83 W/m 15,1 C 13,5 C 16,1 km/h (3 Bft) 98,08 %
05.08.2016 16:52 15,7 C 96 % 1016,0 hPa 0,2 l/m 6,9 km/h (2 Bft) S-SW 213 0 min 0,000 mm 0,5 UV-I 90 W/m 15,1 C 15,4 C 12,9 km/h (3 Bft) 100,00 %
05.08.2016 16:54 15,7 C 96 % 1015,9 hPa 0,0 l/m 8,6 km/h (2 Bft) SW 232 0 min 0,000 mm 0,4 UV-I 90 W/m 15,1 C 14,5 C 16,1 km/h (3 Bft) 100,00 %
05.08.2016 16:56 15,7 C 96 % 1016,0 hPa 0,2 l/m 12,9 km/h (3 Bft) W-SW 238 0 min 0,000 mm 0,0 UV-I 74 W/m 15,1 C 12,7 C 17,7 km/h (3 Bft) 100,00 %
05.08.2016 16:58 15,7 C 96 % 1016,0 hPa 0,2 l/m 7,2 km/h (2 Bft) SW 232 0 min 0,000 mm 0,0 UV-I 59 W/m 15,1 C 15,3 C 14,5 km/h (3 Bft) 100,00 %
05.08.2016 17:00 15,7 C 96 % 1016,1 hPa 0,0 l/m 7,1 km/h (2 Bft) SW 221 0 min 0,000 mm 0,0 UV-I 51 W/m 15,1 C 15,3 C 11,3 km/h (2 Bft) 100,00 %
05.08.2016 17:02 15,7 C 96 % 1016,1 hPa 0,0 l/m 6,8 km/h (2 Bft) S-SW 213 0 min 0,051 mm 0,0 UV-I 37 W/m 15,1 C 15,5 C 12,9 km/h (3 Bft) 100,00 %
05.08.2016 17:04 15,7 C 96 % 1016,1 hPa 0,2 l/m 5,9 km/h (2 Bft) SW 236 0 min 0,000 mm 0,0 UV-I 25 W/m 15,1 C 15,7 C 8,0 km/h (2 Bft) 100,00 %
05.08.2016 17:06 15,7 C 96 % 1016,1 hPa 0,6 l/m 9,0 km/h (2 Bft) S-SW 203 0 min 0,000 mm 0,0 UV-I 23 W/m 15,1 C 14,3 C 19,3 km/h (3 Bft) 98,00 %
05.08.2016 17:08 15,6 C 96 % 1016,2 hPa 0,2 l/m 7,3 km/h (2 Bft) W-NW 286 0 min 0,000 mm 0,0 UV-I 21 W/m 15,0 C 15,1 C 14,5 km/h (3 Bft) 95,12 %
05.08.2016 17:10 15,6 C 96 % 1016,2 hPa 0,2 l/m 3,7 km/h (1 Bft) W-NW 300 0 min 0,000 mm 0,0 UV-I 30 W/m 15,0 C 15,6 C 6,4 km/h (2 Bft) 100,00 %
05.08.2016 17:12 15,6 C 96 % 1016,3 hPa 0,2 l/m 4,9 km/h (1 Bft) W 268 0 min 0,000 mm 0,0 UV-I 53 W/m 15,0 C 15,6 C 12,9 km/h (3 Bft) 100,00 %
05.08.2016 17:14 15,6 C 96 % 1016,3 hPa 0,2 l/m 4,6 km/h (1 Bft) W-SW 256 0 min 0,000 mm 0,0 UV-I 77 W/m 15,0 C 15,6 C 9,7 km/h (2 Bft) 100,00 %
05.08.2016 17:16 15,6 C 96 % 1016,3 hPa 0,0 l/m 6,2 km/h (2 Bft) SW 220 0 min 0,000 mm 0,0 UV-I 73 W/m 15,0 C 15,6 C 11,3 km/h (2 Bft) 100,00 %
05.08.2016 17:18 15,6 C 96 % 1016,3 hPa 0,0 l/m 6,6 km/h (2 Bft) W 275 0 min 0,000 mm 0,0 UV-I 63 W/m 15,0 C 15,5 C 11,3 km/h (2 Bft) 100,00 %
05.08.2016 17:20 15,6 C 96 % 1016,3 hPa 0,0 l/m 12,0 km/h (2 Bft) W-SW 247 0 min 0,000 mm 0,0 UV-I 60 W/m 15,0 C 13,0 C 17,7 km/h (3 Bft) 100,00 %
05.08.2016 17:22 15,5 C 95 % 1016,3 hPa 0,0 l/m 13,5 km/h (3 Bft) W-SW 242 0 min 0,000 mm 0,0 UV-I 67 W/m 14,7 C 12,3 C 19,3 km/h (3 Bft) 100,00 %
05.08.2016 17:24 15,5 C 95 % 1016,4 hPa 0,2 l/m 8,4 km/h (2 Bft) W-SW 248 0 min 0,000 mm 0,0 UV-I 73 W/m 14,7 C 14,4 C 16,1 km/h (3 Bft) 100,00 %
05.08.2016 17:26 15,5 C 95 % 1016,4 hPa 0,0 l/m 6,4 km/h (2 Bft) SW 230 0 min 0,000 mm 0,0 UV-I 80 W/m 14,7 C 15,5 C 11,3 km/h (2 Bft) 100,00 %
05.08.2016 17:28 15,5 C 96 % 1016,4 hPa 0,0 l/m 8,0 km/h (2 Bft) SW 234 0 min 0,000 mm 0,0 UV-I 79 W/m 14,9 C 14,6 C 16,1 km/h (3 Bft) 100,00 %
05.08.2016 17:30 15,5 C 95 % 1016,5 hPa 0,0 l/m 7,5 km/h (2 Bft) W-SW 244 0 min 0,000 mm 0,0 UV-I 80 W/m 14,7 C 14,9 C 12,9 km/h (3 Bft) 100,00 %
05.08.2016 17:32 15,4 C 95 % 1016,6 hPa 0,2 l/m 6,4 km/h (2 Bft) W-SW 244 0 min 0,000 mm 0,0 UV-I 77 W/m 14,6 C 15,4 C 12,9 km/h (3 Bft) 100,00 %
05.08.2016 17:34 15,5 C 96 % 1016,6 hPa 0,0 l/m 7,9 km/h (2 Bft) W 272 0 min 0,000 mm 0,0 UV-I 66 W/m 14,9 C 14,7 C 12,9 km/h (3 Bft) 100,00 %
05.08.2016 17:36 15,5 C 95 % 1016,7 hPa 0,0 l/m 6,4 km/h (2 Bft) W 261 0 min 0,000 mm 0,0 UV-I 65 W/m 14,7 C 15,5 C 11,3 km/h (2 Bft) 100,00 %
05.08.2016 17:38 15,6 C 95 % 1016,7 hPa 0,0 l/m 9,3 km/h (2 Bft) W-SW 240 0 min 0,000 mm 0,0 UV-I 54 W/m 14,8 C 14,1 C 14,5 km/h (3 Bft) 100,00 %
05.08.2016 17:40 15,6 C 95 % 1016,7 hPa 0,2 l/m 8,8 km/h (2 Bft) W-SW 250 0 min 0,000 mm 0,0 UV-I 58 W/m 14,8 C 14,3 C 14,5 km/h (3 Bft) 100,00 %
05.08.2016 17:42 15,6 C 95 % 1016,6 hPa 0,0 l/m 8,6 km/h (2 Bft) W-SW 246 0 min 0,000 mm 0,0 UV-I 66 W/m 14,8 C 14,4 C 14,5 km/h (3 Bft) 98,00 %
05.08.2016 17:44 15,5 C 95 % 1016,5 hPa 0,0 l/m 12,0 km/h (2 Bft) W 271 0 min 0,000 mm 0,0 UV-I 83 W/m 14,7 C 12,8 C 16,1 km/h (3 Bft) 100,00 %
05.08.2016 17:46 15,5 C 95 % 1016,5 hPa 0,2 l/m 9,1 km/h (2 Bft) W-NW 290 0 min 0,000 mm 0,0 UV-I 84 W/m 14,7 C 14,1 C 17,7 km/h (3 Bft) 100,00 %
05.08.2016 17:48 15,6 C 96 % 1016,4 hPa 0,0 l/m 9,4 km/h (2 Bft) W-SW 242 0 min 0,000 mm 0,0 UV-I 92 W/m 15,0 C 14,1 C 14,5 km/h (3 Bft) 98,00 %
05.08.2016 17:50 15,6 C 96 % 1016,4 hPa 0,0 l/m 7,6 km/h (2 Bft) W-SW 252 0 min 0,000 mm 0,0 UV-I 94 W/m 15,0 C 14,9 C 11,3 km/h (2 Bft) 100,00 %
05.08.2016 17:52 15,5 C 95 % 1016,4 hPa 0,0 l/m 11,6 km/h (2 Bft) W-SW 254 0 min 0,000 mm 0,0 UV-I 96 W/m 14,7 C 13,0 C 17,7 km/h (3 Bft) 100,00 %
05.08.2016 17:54 15,4 C 95 % 1016,4 hPa 0,0 l/m 12,6 km/h (3 Bft) W 263 0 min 0,000 mm 0,0 UV-I 101 W/m 14,6 C 12,5 C 19,3 km/h (3 Bft) 100,00 %
05.08.2016 17:56 15,4 C 95 % 1016,5 hPa 0,0 l/m 7,6 km/h (2 Bft) W 263 0 min 0,000 mm 0,0 UV-I 102 W/m 14,6 C 14,7 C 12,9 km/h (3 Bft) 100,00 %
05.08.2016 17:58 15,5 C 96 % 1016,5 hPa 0,0 l/m 9,0 km/h (2 Bft) W-SW 254 0 min 0,000 mm 0,0 UV-I 103 W/m 14,9 C 14,1 C 12,9 km/h (3 Bft) 100,00 %
05.08.2016 18:00 15,5 C 96 % 1016,5 hPa 0,0 l/m 7,6 km/h (2 Bft) W-SW 241 0 min 0,000 mm 0,0 UV-I 105 W/m 14,9 C 14,8 C 16,1 km/h (3 Bft) 100,00 %
05.08.2016 18:02 15,5 C 96 % 1016,5 hPa 0,0 l/m 10,2 km/h (2 Bft) W-SW 248 0 min 0,050 mm 0,0 UV-I 100 W/m 14,9 C 13,6 C 19,3 km/h (3 Bft) 96,61 %
05.08.2016 18:04 15,5 C 96 % 1016,5 hPa 0,2 l/m 7,7 km/h (2 Bft) W-SW 256 0 min 0,000 mm 0,0 UV-I 93 W/m 14,9 C 14,8 C 12,9 km/h (3 Bft) 97,37 %
05.08.2016 18:06 15,5 C 96 % 1016,5 hPa 0,0 l/m 5,6 km/h (1 Bft) W-NW 303 0 min 0,000 mm 0,0 UV-I 86 W/m 14,9 C 15,5 C 9,7 km/h (2 Bft) 98,11 %
05.08.2016 18:08 15,5 C 96 % 1016,5 hPa 0,0 l/m 8,7 km/h (2 Bft) W 263 0 min 0,000 mm 0,0 UV-I 78 W/m 14,9 C 14,3 C 14,5 km/h (3 Bft) 97,87 %
05.08.2016 18:10 15,5 C 95 % 1016,5 hPa 0,0 l/m 9,2 km/h (2 Bft) W-SW 242 0 min 0,000 mm 0,0 UV-I 73 W/m 14,7 C 14,0 C 14,5 km/h (3 Bft) 95,74 %
05.08.2016 18:12 15,4 C 95 % 1016,6 hPa 0,0 l/m 9,2 km/h (2 Bft) W 270 0 min 0,000 mm 0,0 UV-I 67 W/m 14,6 C 13,9 C 12,9 km/h (3 Bft) 97,67 %
05.08.2016 18:14 15,4 C 96 % 1016,7 hPa 0,0 l/m 11,2 km/h (2 Bft) W-SW 240 0 min 0,000 mm 0,0 UV-I 65 W/m 14,8 C 13,0 C 20,9 km/h (4 Bft) 96,00 %
05.08.2016 18:16 15,4 C 95 % 1016,7 hPa 0,2 l/m 12,8 km/h (3 Bft) W 273 0 min 0,000 mm 0,0 UV-I 66 W/m 14,6 C 12,4 C 20,9 km/h (4 Bft) 97,56 %
05.08.2016 18:18 15,4 C 95 % 1016,6 hPa 0,0 l/m 10,9 km/h (2 Bft) W 279 0 min 0,000 mm 0,0 UV-I 68 W/m 14,6 C 13,2 C 19,3 km/h (3 Bft) 98,00 %
05.08.2016 18:20 15,4 C 95 % 1016,6 hPa 0,0 l/m 11,5 km/h (2 Bft) W-SW 250 0 min 0,000 mm 0,0 UV-I 71 W/m 14,6 C 12,9 C 17,7 km/h (3 Bft) 95,74 %
05.08.2016 18:22 15,4 C 95 % 1016,6 hPa 0,0 l/m 11,7 km/h (2 Bft) W 266 0 min 0,000 mm 0,0 UV-I 74 W/m 14,6 C 12,8 C 17,7 km/h (3 Bft) 97,92 %
05.08.2016 18:24 15,4 C 96 % 1016,7 hPa 0,0 l/m 10,3 km/h (2 Bft) W 260 0 min 0,000 mm 0,0 UV-I 72 W/m 14,8 C 13,4 C 19,3 km/h (3 Bft) 93,62 %
05.08.2016 18:26 15,4 C 95 % 1016,7 hPa 0,0 l/m 12,0 km/h (2 Bft) W-SW 238 0 min 0,000 mm 0,0 UV-I 62 W/m 14,6 C 12,7 C 22,5 km/h (4 Bft) 100,00 %
05.08.2016 18:28 15,4 C 95 % 1016,7 hPa 0,0 l/m 11,8 km/h (2 Bft) W-SW 258 0 min 0,000 mm 0,0 UV-I 50 W/m 14,6 C 12,8 C 20,9 km/h (4 Bft) 97,87 %
05.08.2016 18:30 15,4 C 96 % 1016,8 hPa 0,0 l/m 7,2 km/h (2 Bft) W-SW 244 0 min 0,000 mm 0,0 UV-I 46 W/m 14,8 C 15,0 C 14,5 km/h (3 Bft) 97,14 %
05.08.2016 18:32 15,4 C 96 % 1016,9 hPa 0,0 l/m 8,9 km/h (2 Bft) W-SW 246 0 min 0,000 mm 0,0 UV-I 53 W/m 14,8 C 14,1 C 17,7 km/h (3 Bft) 97,78 %
05.08.2016 18:34 15,4 C 96 % 1016,9 hPa 0,0 l/m 10,4 km/h (2 Bft) S-SW 209 0 min 0,000 mm 0,0 UV-I 50 W/m 14,8 C 13,4 C 16,1 km/h (3 Bft) 98,31 %
05.08.2016 18:36 15,4 C 95 % 1017,0 hPa 0,2 l/m 9,9 km/h (2 Bft) W-SW 241 0 min 0,000 mm 0,0 UV-I 42 W/m 14,6 C 13,6 C 16,1 km/h (3 Bft) 97,56 %
05.08.2016 18:38 15,3 C 95 % 1017,0 hPa 0,0 l/m 8,7 km/h (2 Bft) W-SW 248 0 min 0,000 mm 0,0 UV-I 40 W/m 14,5 C 14,1 C 14,5 km/h (3 Bft) 98,00 %
05.08.2016 18:40 15,3 C 95 % 1017,1 hPa 0,0 l/m 11,8 km/h (2 Bft) W-SW 242 0 min 0,000 mm 0,0 UV-I 32 W/m 14,5 C 12,7 C 19,3 km/h (3 Bft) 100,00 %
05.08.2016 18:42 15,3 C 95 % 1017,1 hPa 0,0 l/m 10,1 km/h (2 Bft) SW 235 0 min 0,000 mm 0,0 UV-I 26 W/m 14,5 C 13,4 C 16,1 km/h (3 Bft) 97,92 %
05.08.2016 18:44 15,3 C 95 % 1017,2 hPa 0,0 l/m 8,7 km/h (2 Bft) SW 229 0 min 0,000 mm 0,0 UV-I 19 W/m 14,5 C 14,1 C 12,9 km/h (3 Bft) 100,00 %
05.08.2016 18:46 15,3 C 95 % 1017,2 hPa 0,0 l/m 8,1 km/h (2 Bft) W 259 0 min 0,000 mm 0,0 UV-I 20 W/m 14,5 C 14,4 C 14,5 km/h (3 Bft) 98,11 %
05.08.2016 18:48 15,3 C 95 % 1017,3 hPa 0,0 l/m 8,1 km/h (2 Bft) W-SW 245 0 min 0,000 mm 0,0 UV-I 25 W/m 14,5 C 14,4 C 11,3 km/h (2 Bft) 97,73 %
05.08.2016 18:50 15,3 C 95 % 1017,4 hPa 0,0 l/m 10,1 km/h (2 Bft) W 261 0 min 0,000 mm 0,0 UV-I 27 W/m 14,5 C 13,4 C 14,5 km/h (3 Bft) 100,00 %
05.08.2016 18:52 15,3 C 96 % 1017,4 hPa 0,0 l/m 8,9 km/h (2 Bft) W-SW 252 0 min 0,000 mm 0,0 UV-I 25 W/m 14,7 C 14,0 C 12,9 km/h (3 Bft) 100,00 %
05.08.2016 18:54 15,3 C 96 % 1017,4 hPa 0,0 l/m 10,2 km/h (2 Bft) SW 227 0 min 0,000 mm 0,0 UV-I 23 W/m 14,7 C 13,4 C 16,1 km/h (3 Bft) 97,87 %
05.08.2016 18:56 15,3 C 96 % 1017,4 hPa 0,2 l/m 9,4 km/h (2 Bft) S-SW 196 0 min 0,000 mm 0,0 UV-I 20 W/m 14,7 C 13,7 C 14,5 km/h (3 Bft) 100,00 %
05.08.2016 18:58 15,3 C 96 % 1017,5 hPa 0,0 l/m 6,1 km/h (2 Bft) W-SW 245 0 min 0,000 mm 0,0 UV-I 15 W/m 14,7 C 15,3 C 12,9 km/h (3 Bft) 97,87 %
05.08.2016 19:00 15,3 C 96 % 1017,5 hPa 0,0 l/m 6,2 km/h (2 Bft) W-SW 258 0 min 0,000 mm 0,0 UV-I 11 W/m 14,7 C 15,3 C 9,7 km/h (2 Bft) 100,00 %
05.08.2016 19:02 15,3 C 96 % 1017,6 hPa 0,0 l/m 6,6 km/h (2 Bft) W-SW 242 0 min 0,026 mm 0,0 UV-I 10 W/m 14,7 C 15,2 C 14,5 km/h (3 Bft) 97,87 %
05.08.2016 19:04 15,2 C 96 % 1017,6 hPa 0,0 l/m 6,0 km/h (2 Bft) SW 231 0 min 0,000 mm 0,0 UV-I 11 W/m 14,6 C 15,2 C 9,7 km/h (2 Bft) 100,00 %
05.08.2016 19:06 15,2 C 96 % 1017,6 hPa 0,2 l/m 6,1 km/h (2 Bft) W-SW 257 0 min 0,000 mm 0,0 UV-I 12 W/m 14,6 C 15,2 C 9,7 km/h (2 Bft) 98,00 %
05.08.2016 19:08 15,2 C 96 % 1017,7 hPa 0,0 l/m 6,0 km/h (2 Bft) SW 215 0 min 0,000 mm 0,0 UV-I 10 W/m 14,6 C 15,2 C 9,7 km/h (2 Bft) 100,00 %
05.08.2016 19:10 15,1 C 95 % 1017,7 hPa 0,2 l/m 4,9 km/h (1 Bft) W-SW 238 0 min 0,000 mm 0,0 UV-I 10 W/m 14,3 C 15,1 C 8,0 km/h (2 Bft) 100,00 %
05.08.2016 19:12 15,1 C 96 % 1017,7 hPa 0,0 l/m 4,9 km/h (1 Bft) SW 236 0 min 0,000 mm 0,0 UV-I 10 W/m 14,5 C 15,1 C 14,5 km/h (3 Bft) 100,00 %
05.08.2016 19:14 15,0 C 95 % 1017,7 hPa 0,0 l/m 9,3 km/h (2 Bft) SW 227 0 min 0,000 mm 0,0 UV-I 11 W/m 14,2 C 13,4 C 14,5 km/h (3 Bft) 100,00 %
05.08.2016 19:16 14,9 C 95 % 1017,7 hPa 0,2 l/m 10,2 km/h (2 Bft) SW 216 0 min 0,000 mm 0,0 UV-I 9 W/m 14,1 C 12,9 C 14,5 km/h (3 Bft) 96,00 %
05.08.2016 19:18 14,9 C 95 % 1017,7 hPa 0,2 l/m 7,5 km/h (2 Bft) SW 214 0 min 0,000 mm 0,0 UV-I 7 W/m 14,1 C 14,3 C 14,5 km/h (3 Bft) 97,56 %
05.08.2016 19:20 14,8 C 95 % 1017,6 hPa 0,2 l/m 5,7 km/h (1 Bft) S-SW 195 0 min 0,000 mm 0,0 UV-I 7 W/m 14,0 C 14,8 C 8,0 km/h (2 Bft) 100,00 %
05.08.2016 19:22 14,9 C 95 % 1017,7 hPa 0,4 l/m 4,8 km/h (1 Bft) W-SW 246 0 min 0,000 mm 0,0 UV-I 6 W/m 14,1 C 14,9 C 6,4 km/h (2 Bft) 100,00 %
05.08.2016 19:24 14,8 C 95 % 1017,8 hPa 0,4 l/m 8,1 km/h (2 Bft) W-SW 257 0 min 0,000 mm 0,0 UV-I 5 W/m 14,0 C 13,8 C 14,5 km/h (3 Bft) 100,00 %
05.08.2016 19:26 14,8 C 95 % 1017,8 hPa 0,0 l/m 6,1 km/h (2 Bft) W-SW 250 0 min 0,000 mm 0,0 UV-I 0 W/m 14,0 C 14,8 C 9,7 km/h (2 Bft) 100,00 %
05.08.2016 19:28 14,8 C 95 % 1017,8 hPa 0,0 l/m 6,7 km/h (2 Bft) S-SW 205 0 min 0,000 mm 0,0 UV-I 0 W/m 14,0 C 14,6 C 9,7 km/h (2 Bft) 100,00 %
05.08.2016 19:30 14,8 C 95 % 1017,9 hPa 0,2 l/m 8,0 km/h (2 Bft) S-SW 203 0 min 0,000 mm 0,0 UV-I 5 W/m 14,0 C 13,9 C 12,9 km/h (3 Bft) 100,00 %
05.08.2016 19:32 14,7 C 95 % 1017,9 hPa 0,0 l/m 5,7 km/h (1 Bft) W-SW 237 0 min 0,000 mm 0,0 UV-I 5 W/m 13,9 C 14,7 C 9,7 km/h (2 Bft) 100,00 %
05.08.2016 19:34 14,7 C 95 % 1017,9 hPa 0,0 l/m 7,9 km/h (2 Bft) SW 224 0 min 0,000 mm 0,0 UV-I 7 W/m 13,9 C 13,8 C 12,9 km/h (3 Bft) 100,00 %
05.08.2016 19:36 14,7 C 95 % 1017,9 hPa 0,0 l/m 9,5 km/h (2 Bft) SW 226 0 min 0,000 mm 0,0 UV-I 5 W/m 13,9 C 13,0 C 14,5 km/h (3 Bft) 100,00 %
05.08.2016 19:38 14,6 C 95 % 1018,0 hPa 0,0 l/m 10,5 km/h (2 Bft) W-SW 255 0 min 0,000 mm 0,0 UV-I 5 W/m 13,8 C 12,4 C 16,1 km/h (3 Bft) 100,00 %
05.08.2016 19:40 14,6 C 95 % 1018,1 hPa 0,2 l/m 13,4 km/h (3 Bft) S-SW 194 0 min 0,000 mm 0,0 UV-I 5 W/m 13,8 C 11,3 C 19,3 km/h (3 Bft) 100,00 %
05.08.2016 19:42 14,5 C 95 % 1018,0 hPa 0,0 l/m 11,4 km/h (2 Bft) S-SW 197 0 min 0,000 mm 0,0 UV-I 5 W/m 13,7 C 11,9 C 16,1 km/h (3 Bft) 100,00 %
05.08.2016 19:44 14,4 C 95 % 1018,0 hPa 0,0 l/m 11,0 km/h (2 Bft) S 188 0 min 0,000 mm 0,0 UV-I 5 W/m 13,6 C 12,0 C 16,1 km/h (3 Bft) 97,73 %
05.08.2016 19:45 14,4 C 95 % 1018,1 hPa 0,0 l/m 11,3 km/h (2 Bft) S-SW 202 0 min 0,000 mm 0,0 UV-I 5 W/m 13,6 C 11,9 C 17,7 km/h (3 Bft) 100,00 %
05.08.2016 19:50 14,4 C 95 % 1018,2 hPa 0,2 l/m 9,7 km/h (2 Bft) SW 225 0 min 0,000 mm 0,0 UV-I 5 W/m 13,6 C 12,6 C 20,9 km/h (4 Bft) 99,12 %
05.08.2016 19:55 14,4 C 95 % 1018,2 hPa 0,0 l/m 11,3 km/h (2 Bft) S-SW 202 0 min 0,000 mm 0,0 UV-I 5 W/m 13,6 C 11,9 C 22,5 km/h (4 Bft) 97,37 %
05.08.2016 20:00 14,3 C 96 % 1018,3 hPa 0,0 l/m 11,3 km/h (2 Bft) SW 225 0 min 0,000 mm 0,0 UV-I 6 W/m 13,7 C 11,8 C 19,3 km/h (3 Bft) 100,00 %
05.08.2016 20:05 14,3 C 96 % 1018,4 hPa 0,0 l/m 11,3 km/h (2 Bft) S-SW 202 0 min 0,000 mm 0,0 UV-I 6 W/m 13,7 C 11,8 C 20,9 km/h (4 Bft) 100,00 %
05.08.2016 20:10 14,3 C 96 % 1018,4 hPa 0,2 l/m 9,7 km/h (2 Bft) SW 225 0 min 0,000 mm 0,0 UV-I 5 W/m 13,7 C 12,5 C 17,7 km/h (3 Bft) 100,00 %
05.08.2016 20:15 14,2 C 96 % 1018,5 hPa 0,2 l/m 11,3 km/h (2 Bft) SW 225 0 min 0,000 mm 0,0 UV-I 1 W/m 13,6 C 11,6 C 20,9 km/h (4 Bft) 98,25 %
05.08.2016 20:20 14,2 C 95 % 1018,6 hPa 0,2 l/m 9,7 km/h (2 Bft) S-SW 202 0 min 0,000 mm 0,0 UV-I 0 W/m 13,4 C 12,4 C 19,3 km/h (3 Bft) 100,00 %
05.08.2016 20:25 14,1 C 96 % 1018,6 hPa 0,2 l/m 11,3 km/h (2 Bft) SW 225 0 min 0,000 mm 0,0 UV-I 0 W/m 13,5 C 11,5 C 20,9 km/h (4 Bft) 99,12 %
05.08.2016 20:30 14,1 C 96 % 1018,7 hPa 0,2 l/m 11,3 km/h (2 Bft) SW 225 0 min 0,000 mm 0,0 UV-I 0 W/m 13,5 C 11,5 C 20,9 km/h (4 Bft) 99,12 %
05.08.2016 20:35 14,0 C 96 % 1018,9 hPa 0,0 l/m 11,3 km/h (2 Bft) S-SW 202 0 min 0,000 mm 0,0 UV-I 0 W/m 13,4 C 11,4 C 19,3 km/h (3 Bft) 98,25 %
05.08.2016 20:40 14,0 C 96 % 1019,0 hPa 0,0 l/m 11,3 km/h (2 Bft) SW 225 0 min 0,000 mm 0,0 UV-I 0 W/m 13,4 C 11,4 C 20,9 km/h (4 Bft) 96,49 %
05.08.2016 20:45 14,0 C 96 % 1019,0 hPa 0,2 l/m 9,7 km/h (2 Bft) S-SW 202 0 min 0,000 mm 0,0 UV-I 0 W/m 13,4 C 12,2 C 16,1 km/h (3 Bft) 97,37 %
05.08.2016 20:50 14,0 C 96 % 1019,2 hPa 0,2 l/m 9,7 km/h (2 Bft) S-SW 202 0 min 0,000 mm 0,0 UV-I 0 W/m 13,4 C 12,2 C 19,3 km/h (3 Bft) 98,25 %
05.08.2016 20:55 14,0 C 96 % 1019,2 hPa 0,2 l/m 8,0 km/h (2 Bft) SW 225 0 min 0,000 mm 0,0 UV-I 0 W/m 13,4 C 13,1 C 14,5 km/h (3 Bft) 97,37 %
05.08.2016 21:00 14,1 C 95 % 1019,3 hPa 0,2 l/m 8,0 km/h (2 Bft) SW 225 0 min 0,000 mm 0,0 UV-I 0 W/m 13,3 C 13,2 C 16,1 km/h (3 Bft) 97,37 %
05.08.2016 21:05 14,0 C 95 % 1019,4 hPa 0,2 l/m 11,3 km/h (2 Bft) S-SW 202 0 min 0,000 mm 0,0 UV-I 0 W/m 13,2 C 11,4 C 19,3 km/h (3 Bft) 98,25 %
05.08.2016 21:10 14,1 C 95 % 1019,5 hPa 0,0 l/m 12,9 km/h (3 Bft) S-SW 202 0 min 0,000 mm 0,0 UV-I 0 W/m 13,3 C 10,9 C 24,1 km/h (4 Bft) 98,25 %
05.08.2016 21:15 14,1 C 95 % 1019,5 hPa 0,2 l/m 11,3 km/h (2 Bft) S-SW 202 0 min 0,000 mm 0,0 UV-I 0 W/m 13,3 C 11,5 C 19,3 km/h (3 Bft) 100,00 %
05.08.2016 21:20 14,1 C 95 % 1019,5 hPa 0,0 l/m 8,0 km/h (2 Bft) S-SW 202 0 min 0,000 mm 0,0 UV-I 0 W/m 13,3 C 13,2 C 14,5 km/h (3 Bft) 100,00 %
05.08.2016 21:25 14,1 C 95 % 1019,7 hPa 0,4 l/m 12,9 km/h (3 Bft) SW 225 0 min 0,000 mm 0,0 UV-I 0 W/m 13,3 C 10,9 C 24,1 km/h (4 Bft) 99,12 %
05.08.2016 21:30 14,1 C 95 % 1019,7 hPa 0,2 l/m 14,5 km/h (3 Bft) W-SW 247 0 min 0,000 mm 0,0 UV-I 0 W/m 13,3 C 10,3 C 24,1 km/h (4 Bft) 100,00 %
05.08.2016 21:35 13,9 C 95 % 1019,8 hPa 0,4 l/m 12,9 km/h (3 Bft) W-SW 247 0 min 0,000 mm 0,0 UV-I 0 W/m 13,1 C 10,6 C 20,9 km/h (4 Bft) 100,00 %
05.08.2016 21:40 13,8 C 95 % 1019,9 hPa 0,4 l/m 17,7 km/h (3 Bft) SW 225 0 min 0,000 mm 0,0 UV-I 0 W/m 13,0 C 8,9 C 30,6 km/h (5 Bft) 100,00 %
05.08.2016 21:45 13,7 C 94 % 1019,9 hPa 0,4 l/m 19,3 km/h (3 Bft) SW 225 0 min 0,000 mm 0,0 UV-I 0 W/m 12,8 C 8,3 C 40,2 km/h (6 Bft) 100,00 %
05.08.2016 21:50 13,7 C 95 % 1019,9 hPa 0,6 l/m 17,7 km/h (3 Bft) SW 225 0 min 0,000 mm 0,0 UV-I 0 W/m 12,9 C 8,7 C 29,0 km/h (5 Bft) 100,00 %
05.08.2016 21:55 13,6 C 95 % 1019,9 hPa 0,2 l/m 14,5 km/h (3 Bft) SW 225 0 min 0,000 mm 0,0 UV-I 0 W/m 12,8 C 9,7 C 27,4 km/h (4 Bft) 100,00 %
05.08.2016 22:00 13,6 C 95 % 1019,9 hPa 0,8 l/m 14,5 km/h (3 Bft) SW 225 0 min 0,000 mm 0,0 UV-I 0 W/m 12,8 C 9,7 C 25,7 km/h (4 Bft) 100,00 %
05.08.2016 22:05 13,6 C 95 % 1019,9 hPa 0,4 l/m 14,5 km/h (3 Bft) SW 225 0 min 0,000 mm 0,0 UV-I 0 W/m 12,8 C 9,7 C 25,7 km/h (4 Bft) 100,00 %
05.08.2016 22:12 13,6 C 95 % 1020,1 hPa 1,2 l/m 11,4 km/h (2 Bft) SW 231 0 min 0,000 mm 0,0 UV-I 0 W/m 12,8 C 10,9 C 17,7 km/h (3 Bft) 96,49 %
05.08.2016 22:14 13,5 C 95 % 1020,1 hPa 0,0 l/m 13,3 km/h (3 Bft) SW 219 0 min 0,000 mm 0,0 UV-I 0 W/m 12,7 C 10,0 C 17,7 km/h (3 Bft) 96,23 %
05.08.2016 22:16 13,5 C 95 % 1020,1 hPa 0,2 l/m 11,4 km/h (2 Bft) S-SW 194 0 min 0,000 mm 0,0 UV-I 0 W/m 12,7 C 10,8 C 17,7 km/h (3 Bft) 97,37 %
05.08.2016 22:18 13,5 C 95 % 1020,1 hPa 0,0 l/m 9,5 km/h (2 Bft) S-SW 210 0 min 0,000 mm 0,0 UV-I 0 W/m 12,7 C 11,7 C 16,1 km/h (3 Bft) 96,00 %
05.08.2016 22:20 13,5 C 95 % 1020,2 hPa 0,0 l/m 9,3 km/h (2 Bft) S-SW 201 0 min 0,000 mm 0,0 UV-I 0 W/m 12,7 C 11,8 C 14,5 km/h (3 Bft) 92,45 %
05.08.2016 22:22 13,5 C 95 % 1020,3 hPa 0,0 l/m 9,9 km/h (2 Bft) S-SW 211 0 min 0,000 mm 0,0 UV-I 0 W/m 12,7 C 11,5 C 12,9 km/h (3 Bft) 100,00 %
05.08.2016 22:24 13,5 C 95 % 1020,3 hPa 0,0 l/m 11,5 km/h (2 Bft) SW 224 0 min 0,000 mm 0,0 UV-I 0 W/m 12,7 C 10,8 C 17,7 km/h (3 Bft) 96,00 %
05.08.2016 22:26 13,5 C 95 % 1020,4 hPa 0,0 l/m 10,8 km/h (2 Bft) SW 232 0 min 0,000 mm 0,0 UV-I 0 W/m 12,7 C 11,1 C 16,1 km/h (3 Bft) 97,44 %
05.08.2016 22:28 13,5 C 95 % 1020,4 hPa 0,0 l/m 12,0 km/h (2 Bft) SW 229 0 min 0,000 mm 0,0 UV-I 0 W/m 12,7 C 10,5 C 19,3 km/h (3 Bft) 97,87 %
05.08.2016 22:30 13,4 C 95 % 1020,4 hPa 0,0 l/m 13,9 km/h (3 Bft) W-NW 283 0 min 0,000 mm 0,0 UV-I 0 W/m 12,6 C 9,7 C 20,9 km/h (4 Bft) 98,11 %
05.08.2016 22:32 13,4 C 95 % 1020,3 hPa 0,0 l/m 15,0 km/h (3 Bft) SW 228 0 min 0,000 mm 0,0 UV-I 0 W/m 12,6 C 9,3 C 24,1 km/h (4 Bft) 97,87 %
05.08.2016 22:34 13,4 C 95 % 1020,3 hPa 0,0 l/m 13,1 km/h (3 Bft) W-SW 246 0 min 0,000 mm 0,0 UV-I 0 W/m 12,6 C 10,0 C 19,3 km/h (3 Bft) 97,56 %
05.08.2016 22:36 13,5 C 95 % 1020,2 hPa 0,0 l/m 15,9 km/h (3 Bft) SW 215 0 min 0,000 mm 0,0 UV-I 0 W/m 12,7 C 9,1 C 22,5 km/h (4 Bft) 100,00 %
05.08.2016 22:38 13,5 C 95 % 1020,2 hPa 0,0 l/m 14,8 km/h (3 Bft) SW 215 0 min 0,000 mm 0,0 UV-I 0 W/m 12,7 C 9,4 C 20,9 km/h (4 Bft) 100,00 %
05.08.2016 22:40 13,4 C 95 % 1020,2 hPa 0,0 l/m 13,0 km/h (3 Bft) W-SW 250 0 min 0,000 mm 0,0 UV-I 0 W/m 12,6 C 10,0 C 22,5 km/h (4 Bft) 100,00 %
05.08.2016 22:42 13,4 C 95 % 1020,2 hPa 0,0 l/m 10,1 km/h (2 Bft) W-SW 250 0 min 0,000 mm 0,0 UV-I 0 W/m 12,6 C 11,3 C 19,3 km/h (3 Bft) 97,87 %
05.08.2016 22:44 13,4 C 95 % 1020,1 hPa 0,0 l/m 15,5 km/h (3 Bft) SW 225 0 min 0,000 mm 0,0 UV-I 0 W/m 12,6 C 9,1 C 22,5 km/h (4 Bft) 100,00 %
05.08.2016 22:46 13,4 C 95 % 1020,3 hPa 0,0 l/m 11,9 km/h (2 Bft) S-SW 207 0 min 0,000 mm 0,0 UV-I 0 W/m 12,6 C 10,5 C 19,3 km/h (3 Bft) 100,00 %
05.08.2016 22:48 13,4 C 95 % 1020,3 hPa 0,0 l/m 15,4 km/h (3 Bft) SW 230 0 min 0,000 mm 0,0 UV-I 0 W/m 12,6 C 9,1 C 20,9 km/h (4 Bft) 100,00 %
05.08.2016 22:50 13,4 C 94 % 1020,2 hPa 0,0 l/m 12,4 km/h (3 Bft) SW 236 0 min 0,000 mm 0,0 UV-I 0 W/m 12,5 C 10,3 C 17,7 km/h (3 Bft) 100,00 %
05.08.2016 22:52 13,4 C 94 % 1020,3 hPa 0,0 l/m 15,9 km/h (3 Bft) W-SW 250 0 min 0,000 mm 0,0 UV-I 0 W/m 12,5 C 8,9 C 22,5 km/h (4 Bft) 100,00 %
05.08.2016 22:54 13,4 C 94 % 1020,3 hPa 0,0 l/m 11,3 km/h (2 Bft) SW 230 0 min 0,000 mm 0,0 UV-I 0 W/m 12,5 C 10,7 C 19,3 km/h (3 Bft) 100,00 %
05.08.2016 22:56 13,4 C 95 % 1020,3 hPa 0,0 l/m 14,5 km/h (3 Bft) SW 231 0 min 0,000 mm 0,0 UV-I 0 W/m 12,6 C 9,4 C 24,1 km/h (4 Bft) 95,74 %
05.08.2016 22:58 13,4 C 94 % 1020,3 hPa 0,0 l/m 12,8 km/h (3 Bft) W-SW 241 0 min 0,000 mm 0,0 UV-I 0 W/m 12,5 C 10,1 C 19,3 km/h (3 Bft) 100,00 %
05.08.2016 23:00 13,4 C 94 % 1020,4 hPa 0,0 l/m 14,0 km/h (3 Bft) W-SW 248 0 min 0,000 mm 0,0 UV-I 0 W/m 12,5 C 9,6 C 20,9 km/h (4 Bft) 100,00 %
05.08.2016 23:02 13,4 C 94 % 1020,3 hPa 0,0 l/m 16,0 km/h (3 Bft) W 269 0 min 0,000 mm 0,0 UV-I 0 W/m 12,5 C 8,9 C 22,5 km/h (4 Bft) 100,00 %
05.08.2016 23:04 13,4 C 94 % 1020,4 hPa 0,0 l/m 15,2 km/h (3 Bft) SW 227 0 min 0,000 mm 0,0 UV-I 0 W/m 12,5 C 9,2 C 22,5 km/h (4 Bft) 100,00 %
05.08.2016 23:06 13,3 C 94 % 1020,4 hPa 0,0 l/m 11,7 km/h (2 Bft) SW 225 0 min 0,000 mm 0,0 UV-I 0 W/m 12,4 C 10,4 C 17,7 km/h (3 Bft) 100,00 %
05.08.2016 23:08 13,3 C 95 % 1020,4 hPa 0,2 l/m 13,2 km/h (3 Bft) SW 234 0 min 0,000 mm 0,0 UV-I 0 W/m 12,5 C 9,8 C 20,9 km/h (4 Bft) 100,00 %
05.08.2016 23:10 13,3 C 95 % 1020,5 hPa 0,0 l/m 18,3 km/h (3 Bft) W-SW 242 0 min 0,000 mm 0,0 UV-I 0 W/m 12,5 C 8,0 C 33,8 km/h (5 Bft) 100,00 %
05.08.2016 23:12 13,3 C 95 % 1020,5 hPa 0,0 l/m 19,3 km/h (3 Bft) W-SW 250 0 min 0,000 mm 0,0 UV-I 0 W/m 12,5 C 7,7 C 30,6 km/h (5 Bft) 100,00 %
05.08.2016 23:14 13,3 C 95 % 1020,5 hPa 0,2 l/m 17,3 km/h (3 Bft) SW 232 0 min 0,000 mm 0,0 UV-I 0 W/m 12,5 C 8,4 C 25,7 km/h (4 Bft) 100,00 %
05.08.2016 23:16 13,2 C 95 % 1020,5 hPa 0,2 l/m 12,4 km/h (3 Bft) SW 219 0 min 0,000 mm 0,0 UV-I 0 W/m 12,4 C 10,0 C 17,7 km/h (3 Bft) 100,00 %
05.08.2016 23:18 13,2 C 95 % 1020,5 hPa 0,2 l/m 12,3 km/h (3 Bft) SW 218 0 min 0,000 mm 0,0 UV-I 0 W/m 12,4 C 10,1 C 19,3 km/h (3 Bft) 98,21 %
05.08.2016 23:20 13,2 C 95 % 1020,4 hPa 0,4 l/m 16,3 km/h (3 Bft) SW 223 0 min 0,000 mm 0,0 UV-I 0 W/m 12,4 C 8,6 C 22,5 km/h (4 Bft) 100,00 %
05.08.2016 23:22 13,2 C 95 % 1020,4 hPa 0,0 l/m 15,4 km/h (3 Bft) W-SW 240 0 min 0,000 mm 0,0 UV-I 0 W/m 12,4 C 8,9 C 20,9 km/h (4 Bft) 100,00 %
05.08.2016 23:24 13,2 C 95 % 1020,4 hPa 0,2 l/m 11,9 km/h (2 Bft) S 172 0 min 0,000 mm 0,0 UV-I 0 W/m 12,4 C 10,2 C 20,9 km/h (4 Bft) 100,00 %
05.08.2016 23:26 13,1 C 95 % 1020,4 hPa 0,0 l/m 11,6 km/h (2 Bft) SW 226 0 min 0,000 mm 0,0 UV-I 0 W/m 12,3 C 10,3 C 19,3 km/h (3 Bft) 100,00 %
05.08.2016 23:28 13,1 C 95 % 1020,5 hPa 0,0 l/m 11,9 km/h (2 Bft) S-SW 209 0 min 0,000 mm 0,0 UV-I 0 W/m 12,3 C 10,1 C 17,7 km/h (3 Bft) 100,00 %
05.08.2016 23:30 13,1 C 95 % 1020,5 hPa 0,2 l/m 10,0 km/h (2 Bft) W-SW 244 0 min 0,000 mm 0,0 UV-I 0 W/m 12,3 C 11,0 C 14,5 km/h (3 Bft) 100,00 %
05.08.2016 23:32 13,1 C 96 % 1020,5 hPa 0,2 l/m 9,2 km/h (2 Bft) W 271 0 min 0,000 mm 0,0 UV-I 0 W/m 12,5 C 11,4 C 14,5 km/h (3 Bft) 100,00 %
05.08.2016 23:34 13,1 C 96 % 1020,5 hPa 0,4 l/m 11,0 km/h (2 Bft) W-SW 250 0 min 0,000 mm 0,0 UV-I 0 W/m 12,5 C 10,5 C 19,3 km/h (3 Bft) 100,00 %
05.08.2016 23:36 13,1 C 96 % 1020,4 hPa 0,6 l/m 10,5 km/h (2 Bft) W 259 0 min 0,000 mm 0,0 UV-I 0 W/m 12,5 C 10,8 C 16,1 km/h (3 Bft) 100,00 %
05.08.2016 23:38 13,1 C 96 % 1020,5 hPa 0,2 l/m 11,4 km/h (2 Bft) W-SW 240 0 min 0,000 mm 0,0 UV-I 0 W/m 12,5 C 10,4 C 16,1 km/h (3 Bft) 100,00 %
05.08.2016 23:40 13,1 C 96 % 1020,4 hPa 0,2 l/m 11,6 km/h (2 Bft) S-SW 202 0 min 0,000 mm 0,0 UV-I 0 W/m 12,5 C 10,3 C 16,1 km/h (3 Bft) 100,00 %
05.08.2016 23:42 13,1 C 96 % 1020,6 hPa 0,0 l/m 10,6 km/h (2 Bft) SW 220 0 min 0,000 mm 0,0 UV-I 0 W/m 12,5 C 10,7 C 14,5 km/h (3 Bft) 96,30 %
05.08.2016 23:44 13,1 C 96 % 1020,6 hPa 0,2 l/m 8,4 km/h (2 Bft) W-SW 242 0 min 0,000 mm 0,0 UV-I 0 W/m 12,5 C 11,9 C 12,9 km/h (3 Bft) 98,44 %
05.08.2016 23:46 13,1 C 96 % 1020,7 hPa 0,0 l/m 11,0 km/h (2 Bft) SW 223 0 min 0,000 mm 0,0 UV-I 0 W/m 12,5 C 10,5 C 16,1 km/h (3 Bft) 100,00 %
05.08.2016 23:48 13,1 C 96 % 1020,7 hPa 0,0 l/m 9,8 km/h (2 Bft) W-SW 247 0 min 0,000 mm 0,0 UV-I 0 W/m 12,5 C 11,1 C 12,9 km/h (3 Bft) 100,00 %
05.08.2016 23:50 13,1 C 96 % 1020,8 hPa 0,0 l/m 8,7 km/h (2 Bft) SW 236 0 min 0,000 mm 0,0 UV-I 0 W/m 12,5 C 11,7 C 14,5 km/h (3 Bft) 98,11 %
05.08.2016 23:52 13,1 C 96 % 1020,8 hPa 0,0 l/m 9,7 km/h (2 Bft) S-SW 209 0 min 0,000 mm 0,0 UV-I 0 W/m 12,5 C 11,2 C 14,5 km/h (3 Bft) 100,00 %
05.08.2016 23:54 13,1 C 96 % 1020,8 hPa 0,0 l/m 11,5 km/h (2 Bft) SW 219 0 min 0,000 mm 0,0 UV-I 0 W/m 12,5 C 10,3 C 17,7 km/h (3 Bft) 98,00 %
05.08.2016 23:56 13,1 C 96 % 1020,8 hPa 0,0 l/m 9,3 km/h (2 Bft) SW 219 0 min 0,000 mm 0,0 UV-I 0 W/m 12,5 C 11,4 C 14,5 km/h (3 Bft) 100,00 %
05.08.2016 23:58 13,1 C 96 % 1020,8 hPa 0,0 l/m 8,2 km/h (2 Bft) SW 234 0 min 0,000 mm 0,0 UV-I 0 W/m 12,5 C 12,0 C 14,5 km/h (3 Bft) 100,00 %
_ Min-Zeit 23:26 03:04 01:02 - 01:50 - - - - - - 23:26 23:12 01:24 00:48
Minimum _ 13,1 C 76 % 1004,5 hPa - 0,7 km/h (0 Bft) - - - - - - 12,3 C 7,7 C 3,2 km/h (1 Bft) 92,11 %
_ Max-Zeit 00:00 11:40 23:50 22:12 03:24 - - 07:32 04:00 12:42 12:42 00:18 00:00 03:06 00:00
Maximum _ 21,4 C 96 % 1020,8 hPa 1,2 l/m 34,3 km/h
W (5 Bft)
- - 2 min 0,076 mm 1,6 UV-I 186 W/m 18,4 C 21,3 C 49,9 km/h
W (6 Bft)
100,00 %
Durchschnitt _ 16,8 C 90 % 1013,2 hPa #29,8 l/m 11,1 km/h (2 Bft) W-SW - #6 min. #0,940 mm 0,7 UV-I 64 W/m 15,1 C 14,8 C 17,9 km/h (3 Bft) 98,74 %